KC5DAQ-28 Weather Reports


Display with metric or nautical units.
time (UTC)temp
F
wind
direction
speed
MPH
gust
MPH
rain 1hr
in
rain 24hr
in
rain mn
in
humidity
%
barometer
mb
20240225224902 76 107 4.0 11.0 0.00 0.00 0.00 61 1009.7
20240225224803 76 212 5.0 11.0 0.00 0.00 0.00 61 1009.7
20240225224702 76 192 6.0 11.0 0.00 0.00 0.00 61 1009.6
20240225224603 76 202 5.0 11.0 0.00 0.00 0.00 61 1009.7
20240225224504 76 202 5.0 11.0 0.00 0.00 0.00 61 1009.7
20240225224404 76 202 5.0 11.0 0.00 0.00 0.00 61 1009.7
20240225224303 76 202 5.0 11.0 0.00 0.00 0.00 61 1009.7
20240225224202 76 182 6.0 11.0 0.00 0.00 0.00 60 1009.8
20240225224103 76 175 6.0 12.0 0.00 0.00 0.00 60 1009.7
20240225224004 76 230 5.0 12.0 0.00 0.00 0.00 61 1009.8
20240225223904 76 180 5.0 12.0 0.00 0.00 0.00 61 1009.8
20240225223801 76 185 5.0 12.0 0.00 0.00 0.00 61 1009.7
20240225223703 76 195 4.0 12.0 0.00 0.00 0.00 61 1009.8
20240225223603 76 151 5.0 12.0 0.00 0.00 0.00 61 1009.8
20240225223503 77 200 5.0 12.0 0.00 0.00 0.00 61 1009.8
20240225223403 76 196 4.0 12.0 0.00 0.00 0.00 62 1009.8
20240225223302 76 195 6.0 14.0 0.00 0.00 0.00 61 1009.7
20240225223202 76 135 7.0 14.0 0.00 0.00 0.00 61 1009.8
20240225223103 77 217 6.0 14.0 0.00 0.00 0.00 61 1009.7
20240225223003 77 212 6.0 14.0 0.00 0.00 0.00 61 1009.7
20240225222903 77 147 6.0 14.0 0.00 0.00 0.00 60 1009.7
20240225222802 77 173 5.0 14.0 0.00 0.00 0.00 60 1009.7
20240225222703 77 155 4.0 14.0 0.00 0.00 0.00 60 1009.6
20240225222602 77 192 4.0 14.0 0.00 0.00 0.00 60 1009.6
20240225222505 77 142 6.0 14.0 0.00 0.00 0.00 60 1009.6
20240225222402 77 190 6.0 14.0 0.00 0.00 0.00 60 1009.5
20240225222307 77 109 5.0 13.0 0.00 0.00 0.00 60 1009.6
20240225222202 77 175 5.0 13.0 0.00 0.00 0.00 60 1009.5
20240225222102 77 235 5.0 13.0 0.00 0.00 0.00 60 1009.7
20240225222005 77 212 5.0 13.0 0.00 0.00 0.00 60 1009.7
20240225221902 77 134 4.0 13.0 0.00 0.00 0.00 60 1009.7
20240225221802 77 154 4.0 13.0 0.00 0.00 0.00 60 1009.7
20240225221704 77 42 5.0 13.0 0.00 0.00 0.00 60 1009.8
20240225221602 77 182 5.0 13.0 0.00 0.00 0.00 60 1009.7
20240225221503 77 209 4.0 13.0 0.00 0.00 0.00 59 1009.7
20240225221403 77 137 6.0 13.0 0.00 0.00 0.00 59 1009.7
20240225221302 77 172 7.0 13.0 0.00 0.00 0.00 59 1009.7
20240225221203 77 183 6.0 12.0 0.00 0.00 0.00 59 1009.5
20240225221102 77 179 6.0 11.0 0.00 0.00 0.00 59 1009.6
20240225221003 77 185 7.0 14.0 0.00 0.00 0.00 59 1009.7
20240225220903 78 193 6.0 14.0 0.00 0.00 0.00 59 1009.7
20240225220804 78 186 5.0 14.0 0.00 0.00 0.00 59 1009.6
20240225220702 78 182 5.0 14.0 0.00 0.00 0.00 59 1009.7
20240225220603 78 186 5.0 14.0 0.00 0.00 0.00 59 1009.6
20240225220503 78 193 4.0 14.0 0.00 0.00 0.00 59 1009.6
20240225220403 78 186 5.0 14.0 0.00 0.00 0.00 59 1009.6
20240225220303 78 188 5.0 14.0 0.00 0.00 0.00 59 1009.5
20240225220203 78 195 6.0 18.0 0.00 0.00 0.00 59 1009.5
20240225220102 78 252 5.0 18.0 0.00 0.00 0.00 59 1009.6
20240225220004 78 117 4.0 18.0 0.00 0.00 0.00 59 1009.7
20240225215903 78 221 4.0 18.0 0.00 0.00 0.00 60 1009.8
20240225215804 77 155 4.0 18.0 0.00 0.00 0.00 60 1009.7
20240225215704 77 86 6.0 18.0 0.00 0.00 0.00 59 1009.7
20240225215603 78 178 6.0 18.0 0.00 0.00 0.00 59 1009.8
20240225215503 78 171 6.0 18.0 0.00 0.00 0.00 59 1009.8
20240225215402 78 171 8.0 18.0 0.00 0.00 0.00 58 1009.8
20240225215306 78 162 9.0 18.0 0.00 0.00 0.00 58 1009.8
20240225215203 78 202 6.0 13.0 0.00 0.00 0.00 58 1009.8
20240225215102 78 202 4.0 11.0 0.00 0.00 0.00 58 1009.7
20240225215002 78 172 4.0 11.0 0.00 0.00 0.00 58 1009.8
20240225214904 78 135 3.0 11.0 0.00 0.00 0.00 59 1009.7
20240225214802 78 179 4.0 11.0 0.00 0.00 0.00 59 1009.8
20240225214703 78 147 6.0 11.0 0.00 0.00 0.00 59 1009.8
20240225214603 78 87 4.0 13.0 0.00 0.00 0.00 59 1009.7
20240225214504 78 203 4.0 13.0 0.00 0.00 0.00 58 1009.6
20240225214403 78 176 6.0 13.0 0.00 0.00 0.00 58 1009.7
20240225214303 79 185 6.0 13.0 0.00 0.00 0.00 58 1009.7
20240225214204 79 169 4.0 13.0 0.00 0.00 0.00 58 1009.7
20240225214103 79 207 5.0 13.0 0.00 0.00 0.00 58 1009.7
20240225214004 79 248 5.0 13.0 0.00 0.00 0.00 57 1009.7
20240225213902 79 192 5.0 13.0 0.00 0.00 0.00 58 1009.7
20240225213802 79 165 5.0 13.0 0.00 0.00 0.00 57 1009.7
20240225213703 79 145 5.0 13.0 0.00 0.00 0.00 57 1009.7
20240225213603 79 172 5.0 11.0 0.00 0.00 0.00 58 1009.7
20240225213503 79 134 5.0 11.0 0.00 0.00 0.00 58 1009.8
20240225213403 79 142 4.0 11.0 0.00 0.00 0.00 58 1009.7
20240225213302 79 125 4.0 11.0 0.00 0.00 0.00 58 1009.7
20240225213204 79 188 4.0 11.0 0.00 0.00 0.00 58 1009.7
20240225213104 79 196 5.0 11.0 0.00 0.00 0.00 58 1009.7
20240225213005 78 186 5.0 12.0 0.00 0.00 0.00 58 1009.7
20240225212903 79 186 5.0 16.0 0.00 0.00 0.00 58 1009.7
20240225212802 78 173 5.0 16.0 0.00 0.00 0.00 58 1009.8
20240225212703 78 227 5.0 16.0 0.00 0.00 0.00 58 1009.7
20240225212603 78 138 5.0 16.0 0.00 0.00 0.00 58 1009.7
20240225212503 78 162 5.0 16.0 0.00 0.00 0.00 58 1009.8
20240225212403 78 204 5.0 16.0 0.00 0.00 0.00 57 1009.7
20240225212305 78 137 6.0 16.0 0.00 0.00 0.00 57 1009.5
20240225212202 78 204 6.0 16.0 0.00 0.00 0.00 57 1009.6
20240225212104 78 183 6.0 16.0 0.00 0.00 0.00 58 1009.6
20240225212004 78 158 6.0 16.0 0.00 0.00 0.00 58 1009.6
20240225211905 78 203 6.0 14.0 0.00 0.00 0.00 58 1009.6
20240225211802 78 189 6.0 14.0 0.00 0.00 0.00 57 1009.7
20240225211703 78 144 6.0 14.0 0.00 0.00 0.00 57 1009.6
20240225211603 78 118 4.0 14.0 0.00 0.00 0.00 57 1009.6
20240225211504 78 161 4.0 14.0 0.00 0.00 0.00 57 1009.7
20240225211404 78 226 5.0 14.0 0.00 0.00 0.00 57 1009.5
20240225211302 78 307 5.0 14.0 0.00 0.00 0.00 57 1009.6
20240225211203 79 231 6.0 14.0 0.00 0.00 0.00 57 1009.6
20240225211102 79 138 7.0 14.0 0.00 0.00 0.00 57 1009.7
20240225211003 79 179 5.0 14.0 0.00 0.00 0.00 57 1009.8
20240225210904 79 171 4.0 12.0 0.00 0.00 0.00 57 1009.8
20240225210804 79 151 5.0 12.0 0.00 0.00 0.00 57 1009.8
20240225210702 79 182 6.0 12.0 0.00 0.00 0.00 57 1009.8
20240225210603 79 238 6.0 12.0 0.00 0.00 0.00 57 1009.8
20240225210506 79 120 6.0 12.0 0.00 0.00 0.00 57 1009.9
20240225210403 79 178 5.0 15.0 0.00 0.00 0.00 56 1009.8
20240225210304 79 176 5.0 15.0 0.00 0.00 0.00 57 1009.9
20240225210204 79 196 5.0 15.0 0.00 0.00 0.00 56 1009.8
20240225210104 79 189 5.0 15.0 0.00 0.00 0.00 56 1009.8
20240225210003 79 202 6.0 15.0 0.00 0.00 0.00 56 1009.9
20240225205903 79 235 6.0 15.0 0.00 0.00 0.00 56 1009.8
20240225205803 79 237 6.0 15.0 0.00 0.00 0.00 55 1009.9
20240225205702 79 221 6.0 15.0 0.00 0.00 0.00 55 1009.9
20240225205603 79 178 7.0 15.0 0.00 0.00 0.00 55 1009.8
20240225205503 79 299 6.0 15.0 0.00 0.00 0.00 57 1009.9
20240225205402 79 195 5.0 10.0 0.00 0.00 0.00 56 1010.1
20240225205306 80 158 4.0 10.0 0.00 0.00 0.00 58 1010.0
20240225205204 79 182 4.0 10.0 0.00 0.00 0.00 59 1010.1
20240225205102 79 182 5.0 12.0 0.00 0.00 0.00 58 1010.0
20240225205003 79 204 6.0 12.0 0.00 0.00 0.00 57 1010.1
20240225204903 79 188 5.0 12.0 0.00 0.00 0.00 57 1010.1
20240225204804 79 196 5.0 12.0 0.00 0.00 0.00 57 1010.2
20240225204704 79 199 6.0 13.0 0.00 0.00 0.00 57 1010.2
20240225204602 79 217 6.0 13.0 0.00 0.00 0.00 57 1010.3
20240225204504 79 178 6.0 13.0 0.00 0.00 0.00 57 1010.3
20240225204403 79 235 5.0 13.0 0.00 0.00 0.00 57 1010.1
20240225204303 79 226 5.0 13.0 0.00 0.00 0.00 57 1010.2
20240225204202 79 149 5.0 13.0 0.00 0.00 0.00 56 1010.3
20240225204104 79 179 5.0 13.0 0.00 0.00 0.00 56 1010.2
20240225204003 79 271 6.0 13.0 0.00 0.00 0.00 56 1010.3
20240225203904 79 190 7.0 13.0 0.00 0.00 0.00 55 1010.3
20240225203804 79 207 5.0 13.0 0.00 0.00 0.00 56 1010.2
20240225203703 79 145 4.0 11.0 0.00 0.00 0.00 56 1010.3
20240225203603 79 235 4.0 11.0 0.00 0.00 0.00 57 1010.3
20240225203502 79 219 5.0 11.0 0.00 0.00 0.00 57 1010.2
20240225203402 79 220 6.0 11.0 0.00 0.00 0.00 56 1010.2
20240225203302 79 212 5.0 11.0 0.00 0.00 0.00 56 1010.2
20240225203202 79 330 6.0 12.0 0.00 0.00 0.00 55 1010.2
20240225203103 79 176 5.0 12.0 0.00 0.00 0.00 55 1010.3
20240225203003 79 192 5.0 12.0 0.00 0.00 0.00 56 1010.2
20240225202903 79 183 5.0 12.0 0.00 0.00 0.00 55 1010.2
20240225202804 79 223 5.0 12.0 0.00 0.00 0.00 55 1010.4
20240225202704 79 169 6.0 12.0 0.00 0.00 0.00 55 1010.3
20240225202603 79 209 5.0 12.0 0.00 0.00 0.00 55 1010.2
20240225202503 79 127 5.0 12.0 0.00 0.00 0.00 55 1010.4
20240225202403 79 231 6.0 12.0 0.00 0.00 0.00 55 1010.2
20240225202305 79 175 6.0 12.0 0.00 0.00 0.00 54 1010.2
20240225202203 79 230 5.0 12.0 0.00 0.00 0.00 54 1010.4
20240225202103 79 171 4.0 12.0 0.00 0.00 0.00 54 1010.4
20240225202004 79 188 4.0 12.0 0.00 0.00 0.00 54 1010.5
20240225201903 79 179 6.0 12.0 0.00 0.00 0.00 53 1010.4
20240225201803 79 180 6.0 12.0 0.00 0.00 0.00 53 1010.4
20240225201702 80 230 5.0 12.0 0.00 0.00 0.00 55 1010.4
20240225201602 80 219 5.0 12.0 0.00 0.00 0.00 54 1010.3
20240225201503 80 206 4.0 12.0 0.00 0.00 0.00 54 1010.3
20240225201404 80 168 4.0 11.0 0.00 0.00 0.00 54 1010.4
20240225201303 80 214 5.0 11.0 0.00 0.00 0.00 54 1010.5
20240225201204 80 186 4.0 11.0 0.00 0.00 0.00 54 1010.5
20240225201102 80 173 4.0 11.0 0.00 0.00 0.00 55 1010.6
20240225201003 80 141 6.0 13.0 0.00 0.00 0.00 55 1010.6
20240225200902 80 103 5.0 13.0 0.00 0.00 0.00 54 1010.5
20240225200804 80 210 5.0 13.0 0.00 0.00 0.00 54 1010.7
20240225200702 80 206 6.0 13.0 0.00 0.00 0.00 54 1010.6
20240225200602 80 148 5.0 13.0 0.00 0.00 0.00 55 1010.6
20240225200504 80 213 5.0 13.0 0.00 0.00 0.00 55 1010.6
20240225200404 80 182 6.0 13.0 0.00 0.00 0.00 54 1010.7
20240225200303 80 148 5.0 13.0 0.00 0.00 0.00 53 1010.8
20240225200202 80 147 6.0 13.0 0.00 0.00 0.00 53 1010.7
20240225200103 80 192 6.0 13.0 0.00 0.00 0.00 52 1010.7
20240225200002 80 248 5.0 12.0 0.00 0.00 0.00 55 1010.8
20240225195903 80 235 5.0 12.0 0.00 0.00 0.00 55 1010.8
20240225195803 80 221 5.0 12.0 0.00 0.00 0.00 55 1010.8
20240225195702 80 107 5.0 12.0 0.00 0.00 0.00 55 1010.8
20240225195602 80 172 6.0 12.0 0.00 0.00 0.00 55 1010.6
20240225195504 79 203 5.0 12.0 0.00 0.00 0.00 54 1010.6
20240225195403 79 107 4.0 12.0 0.00 0.00 0.00 54 1010.6
20240225195306 79 182 5.0 12.0 0.00 0.00 0.00 54 1010.6
20240225195203 80 175 6.0 12.0 0.00 0.00 0.00 53 1010.6
20240225195102 80 227 6.0 12.0 0.00 0.00 0.00 52 1010.8
20240225195003 80 189 6.0 12.0 0.00 0.00 0.00 51 1010.7
20240225194903 80 83 6.0 12.0 0.00 0.00 0.00 51 1010.9
20240225194804 80 245 7.0 12.0 0.00 0.00 0.00 52 1010.8
20240225194702 80 213 7.0 11.0 0.00 0.00 0.00 52 1010.8
20240225194603 80 185 5.0 11.0 0.00 0.00 0.00 52 1010.8
20240225194503 80 193 4.0 10.0 0.00 0.00 0.00 52 1010.9
20240225194402 80 179 4.0 10.0 0.00 0.00 0.00 53 1010.9
20240225194304 79 204 5.0 10.0 0.00 0.00 0.00 53 1011.0
20240225194201 79 230 6.0 10.0 0.00 0.00 0.00 51 1010.9
20240225194102 79 178 6.0 10.0 0.00 0.00 0.00 53 1011.0
20240225194003 79 178 4.0 10.0 0.00 0.00 0.00 54 1011.0
20240225193903 79 190 4.0 10.0 0.00 0.00 0.00 53 1011.0
20240225193802 79 159 4.0 10.0 0.00 0.00 0.00 53 1011.1
20240225193703 80 182 5.0 10.0 0.00 0.00 0.00 53 1011.1
20240225193603 80 269 4.0 10.0 0.00 0.00 0.00 54 1011.1
20240225193504 80 151 5.0 11.0 0.00 0.00 0.00 54 1011.2
20240225193403 79 214 6.0 11.0 0.00 0.00 0.00 54 1011.2
20240225193303 79 189 6.0 11.0 0.00 0.00 0.00 53 1011.1
20240225193202 79 199 6.0 11.0 0.00 0.00 0.00 53 1011.1
20240225193103 79 220 6.0 11.0 0.00 0.00 0.00 53 1011.2
20240225193006 79 195 6.0 11.0 0.00 0.00 0.00 51 1011.1
20240225192903 79 176 5.0 11.0 0.00 0.00 0.00 51 1011.2
20240225192803 79 195 5.0 11.0 0.00 0.00 0.00 52 1011.3
20240225192702 79 176 6.0 12.0 0.00 0.00 0.00 52 1011.2
20240225192604 79 233 6.0 12.0 0.00 0.00 0.00 52 1011.4
20240225192505 79 327 5.0 12.0 0.00 0.00 0.00 52 1011.4
20240225192404 79 193 5.0 12.0 0.00 0.00 0.00 52 1011.3
20240225192305 79 230 5.0 12.0 0.00 0.00 0.00 53 1011.4
20240225192202 79 207 5.0 12.0 0.00 0.00 0.00 53 1011.4
20240225192102 79 189 4.0 12.0 0.00 0.00 0.00 52 1011.5
20240225192003 79 226 6.0 12.0 0.00 0.00 0.00 53 1011.6
20240225191903 79 192 5.0 12.0 0.00 0.00 0.00 53 1011.7
20240225191804 79 192 5.0 12.0 0.00 0.00 0.00 53 1011.6
20240225191704 79 179 4.0 12.0 0.00 0.00 0.00 53 1011.7
20240225191603 79 182 4.0 12.0 0.00 0.00 0.00 53 1011.7
20240225191502 79 195 5.0 12.0 0.00 0.00 0.00 52 1011.6
20240225191402 79 196 4.0 12.0 0.00 0.00 0.00 53 1011.7
20240225191303 79 176 5.0 12.0 0.00 0.00 0.00 54 1011.6
20240225191203 79 168 6.0 12.0 0.00 0.00 0.00 53 1011.6
20240225191102 79 162 6.0 10.0 0.00 0.00 0.00 53 1011.6
20240225191002 79 185 6.0 10.0 0.00 0.00 0.00 53 1011.6
20240225190905 79 250 5.0 10.0 0.00 0.00 0.00 54 1011.6
20240225190802 79 176 5.0 11.0 0.00 0.00 0.00 54 1011.8
20240225190704 79 195 5.0 11.0 0.00 0.00 0.00 54 1011.8
20240225190602 79 207 4.0 11.0 0.00 0.00 0.00 54 1011.9
20240225190504 79 197 4.0 11.0 0.00 0.00 0.00 55 1011.9
20240225190402 79 185 4.0 11.0 0.00 0.00 0.00 54 1011.9
20240225190303 79 216 4.0 11.0 0.00 0.00 0.00 55 1012.0
20240225190204 79 182 4.0 11.0 0.00 0.00 0.00 54 1012.0
20240225190102 79 199 4.0 11.0 0.00 0.00 0.00 53 1012.0
20240225190003 79 142 5.0 11.0 0.00 0.00 0.00 54 1012.1
20240225185901 79 200 5.0 11.0 0.00 0.00 0.00 51 1012.1
20240225185802 79 192 5.0 9.0 0.00 0.00 0.00 54 1012.0
20240225185703 79 162 5.0 10.0 0.00 0.00 0.00 54 1012.1
20240225185603 79 147 5.0 10.0 0.00 0.00 0.00 54 1012.1
20240225185504 79 238 5.0 10.0 0.00 0.00 0.00 54 1012.1
20240225185403 79 179 5.0 10.0 0.00 0.00 0.00 54 1012.1
20240225185305 79 195 5.0 10.0 0.00 0.00 0.00 54 1012.0
20240225185203 79 158 4.0 10.0 0.00 0.00 0.00 53 1012.0
20240225185102 79 190 4.0 10.0 0.00 0.00 0.00 52 1012.1
20240225185003 79 183 5.0 10.0 0.00 0.00 0.00 52 1012.1
20240225184904 79 226 6.0 10.0 0.00 0.00 0.00 52 1012.1
20240225184802 79 124 5.0 10.0 0.00 0.00 0.00 55 1012.1
20240225184703 79 183 4.0 10.0 0.00 0.00 0.00 55 1012.2
20240225184604 79 179 5.0 10.0 0.00 0.00 0.00 55 1012.2
20240225184503 78 182 4.0 10.0 0.00 0.00 0.00 55 1012.3
20240225184403 78 183 4.0 10.0 0.00 0.00 0.00 56 1012.3
20240225184304 78 180 5.0 10.0 0.00 0.00 0.00 56 1012.3
20240225184205 78 223 4.0 10.0 0.00 0.00 0.00 56 1012.3
20240225184103 78 176 4.0 11.0 0.00 0.00 0.00 56 1012.4
20240225184003 78 203 5.0 11.0 0.00 0.00 0.00 55 1012.3
20240225183903 78 185 6.0 11.0 0.00 0.00 0.00 56 1012.4
20240225183802 78 147 5.0 11.0 0.00 0.00 0.00 56 1012.4
20240225183702 78 142 5.0 11.0 0.00 0.00 0.00 57 1012.5
20240225183603 78 204 5.0 11.0 0.00 0.00 0.00 56 1012.5
20240225183503 78 203 5.0 11.0 0.00 0.00 0.00 55 1012.5
20240225183403 79 240 4.0 11.0 0.00 0.00 0.00 56 1012.5
20240225183302 79 193 4.0 11.0 0.00 0.00 0.00 56 1012.4
20240225183202 78 265 6.0 11.0 0.00 0.00 0.00 54 1012.4
20240225183104 78 166 5.0 12.0 0.00 0.00 0.00 54 1012.4
20240225183004 78 183 4.0 12.0 0.00 0.00 0.00 56 1012.4
20240225182903 78 213 4.0 12.0 0.00 0.00 0.00 56 1012.5
20240225182803 79 166 4.0 12.0 0.00 0.00 0.00 55 1012.5
20240225182702 79 159 4.0 12.0 0.00 0.00 0.00 56 1012.6
20240225182602 78 186 3.0 12.0 0.00 0.00 0.00 55 1012.7
20240225182504 78 168 3.0 12.0 0.00 0.00 0.00 56 1012.6
20240225182404 78 133 4.0 12.0 0.00 0.00 0.00 55 1012.6
20240225182305 78 186 5.0 12.0 0.00 0.00 0.00 55 1012.6
20240225182203 78 189 5.0 12.0 0.00 0.00 0.00 55 1012.6
20240225182102 78 212 4.0 10.0 0.00 0.00 0.00 55 1012.7
20240225182003 78 183 5.0 12.0 0.00 0.00 0.00 57 1012.7
20240225181903 78 209 3.0 12.0 0.00 0.00 0.00 57 1012.7
20240225181804 78 141 4.0 12.0 0.00 0.00 0.00 56 1012.8
20240225181704 78 200 5.0 12.0 0.00 0.00 0.00 56 1012.8
20240225181604 78 188 5.0 12.0 0.00 0.00 0.00 57 1012.8
20240225181502 78 151 4.0 12.0 0.00 0.00 0.00 56 1012.8
20240225181403 78 223 4.0 12.0 0.00 0.00 0.00 56 1012.8
20240225181305 77 192 5.0 12.0 0.00 0.00 0.00 57 1012.8
20240225181202 77 199 5.0 12.0 0.00 0.00 0.00 59 1012.8
20240225181103 77 131 5.0 12.0 0.00 0.00 0.00 59 1012.8
20240225181003 77 190 6.0 9.0 0.00 0.00 0.00 58 1012.8
20240225180902 77 243 5.0 9.0 0.00 0.00 0.00 58 1012.8
20240225180803 77 216 4.0 9.0 0.00 0.00 0.00 58 1012.9
20240225180703 77 172 5.0 12.0 0.00 0.00 0.00 58 1013.0
20240225180602 77 245 5.0 19.0 0.00 0.00 0.00 58 1013.0
20240225180503 77 192 4.0 19.0 0.00 0.00 0.00 58 1013.0
20240225180403 77 165 3.0 19.0 0.00 0.00 0.00 59 1013.1
20240225180303 77 186 3.0 19.0 0.00 0.00 0.00 59 1013.1
20240225180202 77 159 4.0 19.0 0.00 0.00 0.00 59 1013.1
20240225180103 77 176 4.0 19.0 0.00 0.00 0.00 59 1013.2
20240225180003 76 188 5.0 19.0 0.00 0.00 0.00 59 1013.2
20240225175903 76 193 7.0 19.0 0.00 0.00 0.00 58 1013.2
20240225175803 77 161 7.0 19.0 0.00 0.00 0.00 59 1013.3
20240225175702 77 96 5.0 19.0 0.00 0.00 0.00 59 1013.2
20240225175603 77 147 4.0 10.0 0.00 0.00 0.00 59 1013.3
20240225175503 77 168 5.0 10.0 0.00 0.00 0.00 59 1013.3
20240225175402 77 125 5.0 10.0 0.00 0.00 0.00 58 1013.4
20240225175305 77 199 3.0 10.0 0.00 0.00 0.00 59 1013.3
20240225175202 77 219 2.0 10.0 0.00 0.00 0.00 58 1013.3
20240225175102 76 151 3.0 10.0 0.00 0.00 0.00 58 1013.2
20240225175005 76 182 4.0 12.0 0.00 0.00 0.00 58 1013.3
20240225174903 76 151 5.0 14.0 0.00 0.00 0.00 58 1013.4
20240225174801 76 158 6.0 14.0 0.00 0.00 0.00 58 1013.4
20240225174704 76 193 6.0 14.0 0.00 0.00 0.00 58 1013.5
20240225174604 76 179 5.0 14.0 0.00 0.00 0.00 59 1013.5
20240225174504 76 216 5.0 14.0 0.00 0.00 0.00 59 1013.5
20240225174404 76 226 5.0 14.0 0.00 0.00 0.00 59 1013.5
20240225174303 76 182 4.0 14.0 0.00 0.00 0.00 59 1013.6
20240225174202 76 179 5.0 14.0 0.00 0.00 0.00 58 1013.6
20240225174104 76 250 6.0 14.0 0.00 0.00 0.00 58 1013.6
20240225174005 77 248 5.0 14.0 0.00 0.00 0.00 58 1013.7
20240225173903 77 274 4.0 9.0 0.00 0.00 0.00 58 1013.8
20240225173804 77 223 4.0 9.0 0.00 0.00 0.00 58 1013.8
20240225173702 77 149 4.0 7.0 0.00 0.00 0.00 58 1013.7
20240225173603 77 176 3.0 10.0 0.00 0.00 0.00 59 1013.7
20240225173504 76 196 3.0 10.0 0.00 0.00 0.00 58 1013.7
20240225173402 76 166 4.0 10.0 0.00 0.00 0.00 58 1013.7
20240225173302 77 188 4.0 10.0 0.00 0.00 0.00 60 1013.7
20240225173204 77 204 4.0 10.0 0.00 0.00 0.00 62 1013.7
20240225173104 77 195 2.0 10.0 0.00 0.00 0.00 62 1013.7
20240225173004 76 168 2.0 10.0 0.00 0.00 0.00 60 1013.7
20240225172904 76 264 4.0 10.0 0.00 0.00 0.00 60 1013.8
20240225172803 76 164 6.0 10.0 0.00 0.00 0.00 59 1013.8
20240225172702 76 220 6.0 10.0 0.00 0.00 0.00 59 1013.9
20240225172604 76 188 6.0 9.0 0.00 0.00 0.00 59 1013.8
20240225172504 76 165 5.0 9.0 0.00 0.00 0.00 62 1013.8
20240225172403 76 203 3.0 7.0 0.00 0.00 0.00 63 1013.9
20240225172305 76 179 4.0 13.0 0.00 0.00 0.00 63 1013.9
20240225172201 75 176 4.0 13.0 0.00 0.00 0.00 63 1014.0
20240225172103 75 176 4.0 13.0 0.00 0.00 0.00 64 1014.0
20240225172003 75 169 5.0 13.0 0.00 0.00 0.00 63 1014.1
20240225171902 75 210 5.0 13.0 0.00 0.00 0.00 63 1014.0
20240225171804 75 207 5.0 13.0 0.00 0.00 0.00 63 1014.0
20240225171704 75 144 5.0 13.0 0.00 0.00 0.00 63 1014.0
20240225171602 74 202 5.0 13.0 0.00 0.00 0.00 63 1014.1
20240225171504 74 186 6.0 13.0 0.00 0.00 0.00 63 1014.1
20240225171402 74 188 6.0 13.0 0.00 0.00 0.00 63 1014.0
20240225171304 74 217 5.0 11.0 0.00 0.00 0.00 63 1014.1
20240225171203 74 173 5.0 13.0 0.00 0.00 0.00 63 1014.0
20240225171103 74 141 6.0 13.0 0.00 0.00 0.00 63 1014.1
20240225171002 74 118 5.0 13.0 0.00 0.00 0.00 63 1014.1
20240225170904 74 196 4.0 13.0 0.00 0.00 0.00 63 1014.1
20240225170805 74 188 4.0 13.0 0.00 0.00 0.00 63 1014.3
20240225170703 74 223 5.0 13.0 0.00 0.00 0.00 63 1014.3
20240225170603 74 196 6.0 13.0 0.00 0.00 0.00 63 1014.2
20240225170502 74 182 6.0 13.0 0.00 0.00 0.00 62 1014.2
20240225170402 74 183 7.0 13.0 0.00 0.00 0.00 62 1014.2
20240225170304 74 183 5.0 13.0 0.00 0.00 0.00 64 1014.2
20240225170203 74 207 4.0 7.0 0.00 0.00 0.00 64 1014.3
20240225170102 74 204 5.0 7.0 0.00 0.00 0.00 64 1014.2
20240225170003 74 241 5.0 7.0 0.00 0.00 0.00 64 1014.4
20240225165903 74 176 4.0 7.0 0.00 0.00 0.00 64 1014.3
20240225165802 74 193 4.0 10.0 0.00 0.00 0.00 65 1014.2
20240225165702 74 164 4.0 10.0 0.00 0.00 0.00 65 1014.3
20240225165602 74 186 3.0 10.0 0.00 0.00 0.00 66 1014.2
20240225165504 74 161 2.0 10.0 0.00 0.00 0.00 66 1014.2
20240225165402 74 107 2.0 10.0 0.00 0.00 0.00 67 1014.2
20240225165306 73 171 3.0 10.0 0.00 0.00 0.00 67 1014.2
20240225165202 73 179 4.0 12.0 0.00 0.00 0.00 67 1014.1
20240225165105 73 188 4.0 12.0 0.00 0.00 0.00 66 1014.3
20240225165004 73 210 6.0 12.0 0.00 0.00 0.00 66 1014.2
20240225164904 73 199 5.0 12.0 0.00 0.00 0.00 66 1014.3
20240225164802 73 175 5.0 12.0 0.00 0.00 0.00 66 1014.4
20240225164715 73 190 5.0 12.0 0.00 0.00 0.00 66 1014.3
20240225164604 74 172 4.0 12.0 0.00 0.00 0.00 67 1014.3
20240225164506 73 204 3.0 12.0 0.00 0.00 0.00 67 1014.4
20240225164404 73 180 4.0 12.0 0.00 0.00 0.00 67 1014.5
20240225164302 73 172 5.0 12.0 0.00 0.00 0.00 68 1014.4
20240225164203 73 183 5.0 10.0 0.00 0.00 0.00 68 1014.5
20240225164102 73 197 5.0 10.0 0.00 0.00 0.00 67 1014.4
20240225164003 73 182 6.0 10.0 0.00 0.00 0.00 67 1014.5
20240225163904 73 202 5.0 10.0 0.00 0.00 0.00 67 1014.5
20240225163802 73 209 5.0 10.0 0.00 0.00 0.00 67 1014.4
20240225163704 73 182 5.0 10.0 0.00 0.00 0.00 67 1014.4
20240225163603 73 166 5.0 10.0 0.00 0.00 0.00 67 1014.3
20240225163504 73 147 4.0 10.0 0.00 0.00 0.00 67 1014.4
20240225163402 73 185 5.0 10.0 0.00 0.00 0.00 67 1014.4
20240225163303 73 178 4.0 10.0 0.00 0.00 0.00 67 1014.3
20240225163203 73 196 5.0 10.0 0.00 0.00 0.00 67 1014.4
20240225163103 73 199 4.0 9.0 0.00 0.00 0.00 67 1014.4
20240225163004 73 180 4.0 9.0 0.00 0.00 0.00 67 1014.5
20240225162902 73 173 3.0 9.0 0.00 0.00 0.00 68 1014.4
20240225162804 73 158 3.0 9.0 0.00 0.00 0.00 68 1014.4
20240225162701 73 185 4.0 9.0 0.00 0.00 0.00 68 1014.3
20240225162603 73 135 4.0 9.0 0.00 0.00 0.00 68 1014.4
20240225162503 73 131 2.0 6.0 0.00 0.00 0.00 69 1014.5
20240225162403 73 166 2.0 6.0 0.00 0.00 0.00 69 1014.4
20240225162305 73 186 3.0 6.0 0.00 0.00 0.00 69 1014.4
20240225162204 72 183 3.0 6.0 0.00 0.00 0.00 69 1014.5
20240225162104 72 179 3.0 6.0 0.00 0.00 0.00 69 1014.4
20240225162005 72 173 3.0 6.0 0.00 0.00 0.00 69 1014.4
20240225161902 72 159 3.0 6.0 0.00 0.00 0.00 69 1014.4
20240225161802 72 206 3.0 6.0 0.00 0.00 0.00 69 1014.4
20240225161701 72 207 3.0 6.0 0.00 0.00 0.00 70 1014.3
20240225161604 72 238 3.0 9.0 0.00 0.00 0.00 70 1014.3
20240225161504 72 196 3.0 9.0 0.00 0.00 0.00 70 1014.3
20240225161402 72 173 3.0 9.0 0.00 0.00 0.00 70 1014.3
20240225161302 71 179 4.0 9.0 0.00 0.00 0.00 69 1014.2
20240225161202 71 207 4.0 9.0 0.00 0.00 0.00 69 1014.3
20240225161102 71 193 4.0 9.0 0.00 0.00 0.00 69 1014.4
20240225161004 71 197 4.0 9.0 0.00 0.00 0.00 69 1014.5
20240225160904 72 173 4.0 9.0 0.00 0.00 0.00 70 1014.5
20240225160803 71 196 4.0 9.0 0.00 0.00 0.00 70 1014.4
20240225160702 71 185 4.0 9.0 0.00 0.00 0.00 70 1014.4
20240225160603 71 161 4.0 9.0 0.00 0.00 0.00 71 1014.5
20240225160504 71 173 4.0 10.0 0.00 0.00 0.00 70 1014.5
20240225160403 71 278 3.0 10.0 0.00 0.00 0.00 70 1014.5
20240225160302 71 190 3.0 10.0 0.00 0.00 0.00 70 1014.5
20240225160203 71 203 4.0 10.0 0.00 0.00 0.00 70 1014.4
20240225160105 71 199 4.0 10.0 0.00 0.00 0.00 70 1014.5
20240225160005 71 204 4.0 10.0 0.00 0.00 0.00 71 1014.5
20240225155902 71 183 4.0 10.0 0.00 0.00 0.00 71 1014.6
20240225155804 71 185 5.0 10.0 0.00 0.00 0.00 70 1014.5
20240225155702 71 220 4.0 10.0 0.00 0.00 0.00 70 1014.6
20240225155603 71 183 4.0 10.0 0.00 0.00 0.00 71 1014.6
20240225155502 70 221 4.0 9.0 0.00 0.00 0.00 71 1014.6
20240225155403 70 186 5.0 9.0 0.00 0.00 0.00 70 1014.6
20240225155306 70 155 4.0 9.0 0.00 0.00 0.00 71 1014.6
20240225155202 70 199 3.0 9.0 0.00 0.00 0.00 71 1014.6
20240225155105 70 223 3.0 9.0 0.00 0.00 0.00 71 1014.6
20240225155004 70 134 4.0 9.0 0.00 0.00 0.00 70 1014.6
20240225154903 70 175 5.0 9.0 0.00 0.00 0.00 71 1014.5
20240225154802 70 214 5.0 9.0 0.00 0.00 0.00 71 1014.6
20240225154704 70 85 4.0 9.0 0.00 0.00 0.00 71 1014.6
20240225154605 70 180 4.0 7.0 0.00 0.00 0.00 70 1014.6
20240225154506 70 199 4.0 7.0 0.00 0.00 0.00 71 1014.5
20240225154402 70 331 3.0 7.0 0.00 0.00 0.00 71 1014.7
20240225154302 70 193 3.0 7.0 0.00 0.00 0.00 71 1014.7
20240225154203 70 204 3.0 10.0 0.00 0.00 0.00 71 1014.6
20240225154102 70 178 4.0 10.0 0.00 0.00 0.00 71 1014.6
20240225154005 70 203 4.0 10.0 0.00 0.00 0.00 70 1014.5
20240225153903 70 223 4.0 10.0 0.00 0.00 0.00 71 1014.4
20240225153802 70 171 4.0 10.0 0.00 0.00 0.00 72 1014.4
20240225153702 69 168 3.0 10.0 0.00 0.00 0.00 71 1014.3
20240225153604 69 168 3.0 10.0 0.00 0.00 0.00 71 1014.4
20240225153504 69 135 3.0 10.0 0.00 0.00 0.00 71 1014.4
20240225153404 69 203 4.0 10.0 0.00 0.00 0.00 71 1014.4
20240225153303 69 185 4.0 10.0 0.00 0.00 0.00 71 1014.4
20240225153202 69 140 4.0 9.0 0.00 0.00 0.00 71 1014.5
20240225153102 69 186 4.0 9.0 0.00 0.00 0.00 71 1014.5
20240225153002 69 189 4.0 9.0 0.00 0.00 0.00 71 1014.5
20240225152902 69 193 3.0 9.0 0.00 0.00 0.00 71 1014.4
20240225152802 69 172 2.0 9.0 0.00 0.00 0.00 71 1014.4
20240225152704 69 233 2.0 9.0 0.00 0.00 0.00 71 1014.4
20240225152603 69 195 4.0 9.0 0.00 0.00 0.00 71 1014.3
20240225152503 69 193 4.0 9.0 0.00 0.00 0.00 71 1014.3
20240225152401 68 190 3.0 9.0 0.00 0.00 0.00 72 1014.3
20240225152306 68 199 2.0 7.0 0.00 0.00 0.00 71 1014.2
20240225152202 68 172 3.0 7.0 0.00 0.00 0.00 71 1014.3
20240225152102 68 173 4.0 7.0 0.00 0.00 0.00 72 1014.3
20240225152004 68 162 2.0 7.0 0.00 0.00 0.00 71 1014.2
20240225151903 68 165 2.0 7.0 0.00 0.00 0.00 72 1014.3
20240225151803 68 186 3.0 7.0 0.00 0.00 0.00 72 1014.2
20240225151702 68 127 3.0 7.0 0.00 0.00 0.00 72 1014.3
20240225151602 67 142 3.0 7.0 0.00 0.00 0.00 72 1014.3
20240225151503 67 197 3.0 7.0 0.00 0.00 0.00 72 1014.3
20240225151402 67 180 3.0 7.0 0.00 0.00 0.00 72 1014.3
20240225151302 67 190 4.0 7.0 0.00 0.00 0.00 72 1014.3
20240225151203 67 210 3.0 7.0 0.00 0.00 0.00 72 1014.4
20240225151103 67 190 3.0 5.0 0.00 0.00 0.00 72 1014.3
20240225151002 67 154 3.0 5.0 0.00 0.00 0.00 72 1014.4
20240225150903 67 216 3.0 6.0 0.00 0.00 0.00 72 1014.4
20240225150803 67 158 3.0 6.0 0.00 0.00 0.00 72 1014.4
20240225150702 67 178 3.0 6.0 0.00 0.00 0.00 72 1014.3
20240225150603 67 173 2.0 6.0 0.00 0.00 0.00 73 1014.3
20240225150505 67 188 2.0 6.0 0.00 0.00 0.00 73 1014.4
20240225150403 67 195 2.0 6.0 0.00 0.00 0.00 73 1014.4
20240225150303 67 142 3.0 6.0 0.00 0.00 0.00 73 1014.2
20240225150204 67 124 2.0 6.0 0.00 0.00 0.00 73 1014.3
20240225150102 66 206 3.0 6.0 0.00 0.00 0.00 73 1014.4
20240225150003 66 206 3.0 6.0 0.00 0.00 0.00 73 1014.4
20240225145903 66 175 2.0 4.0 0.00 0.00 0.00 74 1014.4
20240225145802 66 193 2.0 4.0 0.00 0.00 0.00 75 1014.4
20240225145703 66 171 2.0 4.0 0.00 0.00 0.00 75 1014.3
20240225145602 66 171 2.0 4.0 0.00 0.00 0.00 75 1014.4
20240225145504 66 178 2.0 4.0 0.00 0.00 0.00 75 1014.4
20240225145402 65 212 2.0 4.0 0.00 0.00 0.00 75 1014.4
20240225145306 65 166 2.0 4.0 0.00 0.00 0.00 76 1014.4
20240225145203 65 164 2.0 4.0 0.00 0.00 0.00 76 1014.3
20240225145102 65 162 2.0 4.0 0.00 0.00 0.00 76 1014.3
20240225145003 65 149 2.0 5.0 0.00 0.00 0.00 77 1014.2
20240225144902 65 155 3.0 5.0 0.00 0.00 0.00 77 1014.2
20240225144802 65 180 2.0 5.0 0.00 0.00 0.00 77 1014.2
20240225144704 64 154 2.0 5.0 0.00 0.00 0.00 77 1014.2
20240225144603 64 204 2.0 5.0 0.00 0.00 0.00 77 1014.1
20240225144503 64 157 3.0 5.0 0.00 0.00 0.00 77 1014.3
20240225144402 64 185 3.0 5.0 0.00 0.00 0.00 77 1014.2
20240225144303 64 186 2.0 5.0 0.00 0.00 0.00 78 1014.2
20240225144202 64 185 2.0 5.0 0.00 0.00 0.00 78 1014.3
20240225144103 64 196 3.0 5.0 0.00 0.00 0.00 78 1014.3
20240225144005 64 190 2.0 5.0 0.00 0.00 0.00 78 1014.3
20240225143904 64 176 2.0 5.0 0.00 0.00 0.00 79 1014.2
20240225143802 64 180 2.0 5.0 0.00 0.00 0.00 79 1014.2
20240225143704 64 192 2.0 5.0 0.00 0.00 0.00 79 1014.1
20240225143603 63 213 2.0 5.0 0.00 0.00 0.00 79 1014.1
20240225143505 63 226 2.0 5.0 0.00 0.00 0.00 79 1014.0
20240225143405 63 173 2.0 5.0 0.00 0.00 0.00 80 1014.0
20240225143303 63 189 2.0 5.0 0.00 0.00 0.00 80 1014.0
20240225143203 63 172 2.0 5.0 0.00 0.00 0.00 80 1014.0
20240225143103 63 200 2.0 5.0 0.00 0.00 0.00 80 1014.0
20240225143004 63 192 2.0 4.0 0.00 0.00 0.00 81 1014.0
20240225142904 62 192 2.0 4.0 0.00 0.00 0.00 81 1014.0
20240225142803 62 147 2.0 4.0 0.00 0.00 0.00 81 1014.0
20240225142703 62 178 2.0 4.0 0.00 0.00 0.00 81 1014.0
20240225142604 62 192 2.0 4.0 0.00 0.00 0.00 82 1014.0
20240225142504 62 141 2.0 4.0 0.00 0.00 0.00 82 1014.0
20240225142404 62 157 2.0 4.0 0.00 0.00 0.00 82 1014.0
20240225142306 62 158 2.0 4.0 0.00 0.00 0.00 83 1014.0
20240225142203 61 159 1.0 4.0 0.00 0.00 0.00 83 1014.0
20240225142103 61 141 1.0 4.0 0.00 0.00 0.00 83 1013.9
20240225142003 61 149 1.0 4.0 0.00 0.00 0.00 83 1013.8
20240225141903 61 148 2.0 4.0 0.00 0.00 0.00 83 1013.8
20240225141802 61 165 2.0 4.0 0.00 0.00 0.00 84 1013.8
20240225141702 61 178 2.0 4.0 0.00 0.00 0.00 84 1013.8
20240225141602 61 182 2.0 4.0 0.00 0.00 0.00 84 1013.8
20240225141505 61 202 2.0 4.0 0.00 0.00 0.00 84 1013.9
20240225141402 60 164 2.0 4.0 0.00 0.00 0.00 84 1013.9
20240225141302 60 164 1.0 4.0 0.00 0.00 0.00 85 1013.8
20240225141202 60 166 2.0 4.0 0.00 0.00 0.00 85 1013.8
20240225141102 60 189 2.0 4.0 0.00 0.00 0.00 85 1013.9
20240225141003 60 161 2.0 4.0 0.00 0.00 0.00 85 1013.8
20240225140903 60 137 2.0 4.0 0.00 0.00 0.00 85 1013.9
20240225140803 60 169 1.0 3.0 0.00 0.00 0.00 86 1013.9
20240225140702 60 171 2.0 3.0 0.00 0.00 0.00 86 1013.9
20240225140602 59 172 1.0 4.0 0.00 0.00 0.00 86 1013.9
20240225140504 59 165 1.0 4.0 0.00 0.00 0.00 86 1013.8
20240225140404 59 173 1.0 4.0 0.00 0.00 0.00 86 1013.8
20240225140303 59 165 1.0 4.0 0.00 0.00 0.00 86 1013.8
20240225140204 59 161 1.0 4.0 0.00 0.00 0.00 86 1013.8
20240225140103 59 162 1.0 4.0 0.00 0.00 0.00 87 1013.8
20240225140003 59 152 1.0 4.0 0.00 0.00 0.00 87 1013.8
20240225135903 59 152 0.0 4.0 0.00 0.00 0.00 87 1013.9
20240225135803 59 147 1.0 4.0 0.00 0.00 0.00 87 1013.8
20240225135703 59 147 1.0 4.0 0.00 0.00 0.00 87 1013.8
20240225135601 58 171 1.0 3.0 0.00 0.00 0.00 87 1013.8
20240225135504 58 162 1.0 3.0 0.00 0.00 0.00 87 1013.8
20240225135402 58 162 1.0 3.0 0.00 0.00 0.00 87 1013.8
20240225135305 58 162 1.0 3.0 0.00 0.00 0.00 87 1013.8
20240225135203 58 161 2.0 3.0 0.00 0.00 0.00 87 1013.7
20240225135103 58 168 2.0 3.0 0.00 0.00 0.00 88 1013.6
20240225135005 58 155 1.0 3.0 0.00 0.00 0.00 88 1013.6
20240225134905 58 171 1.0 3.0 0.00 0.00 0.00 88 1013.6
20240225134802 58 175 1.0 3.0 0.00 0.00 0.00 88 1013.6
20240225134704 58 172 1.0 3.0 0.00 0.00 0.00 88 1013.6
20240225134603 58 149 0.0 3.0 0.00 0.00 0.00 88 1013.6
20240225134503 57 149 0.0 3.0 0.00 0.00 0.00 88 1013.7
20240225134403 57 147 0.0 3.0 0.00 0.00 0.00 88 1013.7
20240225134303 57 147 0.0 3.0 0.00 0.00 0.00 88 1013.7
20240225134204 57 145 0.0 3.0 0.00 0.00 0.00 88 1013.7
20240225134102 57 145 1.0 3.0 0.00 0.00 0.00 88 1013.8
20240225134004 57 171 1.0 3.0 0.00 0.00 0.00 88 1013.7
20240225133902 57 172 1.0 2.0 0.00 0.00 0.00 88 1013.7
20240225133805 57 172 1.0 2.0 0.00 0.00 0.00 88 1013.5
20240225133704 57 173 0.0 2.0 0.00 0.00 0.00 88 1013.6
20240225133603 57 173 0.0 2.0 0.00 0.00 0.00 88 1013.5
20240225133503 57 173 0.0 3.0 0.00 0.00 0.00 88 1013.6
20240225133404 57 173 0.0 3.0 0.00 0.00 0.00 88 1013.5
20240225133302 57 173 0.0 3.0 0.00 0.00 0.00 88 1013.5
20240225133204 57 173 0.0 3.0 0.00 0.00 0.00 88 1013.5
20240225133104 57 173 1.0 3.0 0.00 0.00 0.00 88 1013.5
20240225133005 56 182 1.0 3.0 0.00 0.00 0.00 88 1013.5
20240225132903 56 182 1.0 3.0 0.00 0.00 0.00 88 1013.5
20240225132802 56 182 1.0 3.0 0.00 0.00 0.00 88 1013.5
20240225132704 56 182 1.0 3.0 0.00 0.00 0.00 88 1013.5
20240225132602 56 182 1.0 3.0 0.00 0.00 0.00 88 1013.6
20240225132504 56 185 1.0 3.0 0.00 0.00 0.00 89 1013.6
20240225132405 56 188 1.0 3.0 0.00 0.00 0.00 89 1013.6
20240225132309 56 188 1.0 3.0 0.00 0.00 0.00 89 1013.5
20240225132203 56 189 1.0 3.0 0.00 0.00 0.00 89 1013.6
20240225132102 56 188 1.0 3.0 0.00 0.00 0.00 89 1013.5
20240225132005 56 159 1.0 3.0 0.00 0.00 0.00 88 1013.5
20240225131902 56 158 1.0 3.0 0.00 0.00 0.00 88 1013.6
20240225131804 56 157 0.0 3.0 0.00 0.00 0.00 88 1013.5
20240225131703 56 176 1.0 3.0 0.00 0.00 0.00 88 1013.6
20240225131603 56 178 1.0 3.0 0.00 0.00 0.00 88 1013.6
20240225131505 56 176 1.0 2.0 0.00 0.00 0.00 88 1013.6
20240225131403 56 176 1.0 2.0 0.00 0.00 0.00 88 1013.7
20240225131303 56 178 1.0 2.0 0.00 0.00 0.00 88 1013.7
20240225131205 56 168 1.0 2.0 0.00 0.00 0.00 88 1013.6
20240225131104 56 168 0.0 2.0 0.00 0.00 0.00 88 1013.7
20240225131004 56 168 0.0 4.0 0.00 0.00 0.00 88 1013.7
20240225130904 56 168 1.0 4.0 0.00 0.00 0.00 88 1013.6
20240225130803 56 168 1.0 4.0 0.00 0.00 0.00 88 1013.6
20240225130704 56 168 1.0 4.0 0.00 0.00 0.00 88 1013.5
20240225130603 56 169 1.0 4.0 0.00 0.00 0.00 88 1013.5
20240225130503 56 169 1.0 4.0 0.00 0.00 0.00 88 1013.5
20240225130402 56 171 1.0 4.0 0.00 0.00 0.00 88 1013.5
20240225130302 56 169 1.0 4.0 0.00 0.00 0.00 88 1013.5
20240225130204 56 166 1.0 4.0 0.00 0.00 0.00 88 1013.6
20240225130102 56 166 2.0 4.0 0.00 0.00 0.00 88 1013.6
20240225130004 56 185 1.0 4.0 0.00 0.00 0.00 88 1013.6
20240225125902 56 172 0.0 2.0 0.00 0.00 0.00 88 1013.7
20240225125804 56 172 1.0 2.0 0.00 0.00 0.00 88 1013.6
20240225125704 56 172 1.0 2.0 0.00 0.00 0.00 88 1013.6
20240225125602 56 171 1.0 2.0 0.00 0.00 0.00 88 1013.6
20240225125504 56 172 1.0 2.0 0.00 0.00 0.00 88 1013.5
20240225125402 56 172 1.0 2.0 0.00 0.00 0.00 88 1013.5
20240225125306 56 172 1.0 2.0 0.00 0.00 0.00 88 1013.4
20240225125202 56 173 1.0 2.0 0.00 0.00 0.00 88 1013.4
20240225125102 56 162 1.0 2.0 0.00 0.00 0.00 88 1013.5
20240225125005 56 162 0.0 2.0 0.00 0.00 0.00 88 1013.4
20240225124902 56 162 1.0 2.0 0.00 0.00 0.00 88 1013.4
20240225124804 56 162 0.0 2.0 0.00 0.00 0.00 88 1013.5
20240225124704 56 162 1.0 2.0 0.00 0.00 0.00 88 1013.5
20240225124603 56 162 1.0 2.0 0.00 0.00 0.00 88 1013.5
20240225124503 56 162 1.0 2.0 0.00 0.00 0.00 88 1013.5
20240225124402 56 164 0.0 2.0 0.00 0.00 0.00 88 1013.5
20240225124303 56 162 0.0 2.0 0.00 0.00 0.00 88 1013.5
20240225124202 56 162 0.0 2.0 0.00 0.00 0.00 89 1013.5
20240225124103 56 162 0.0 2.0 0.00 0.00 0.00 89 1013.4
20240225124003 56 161 0.0 2.0 0.00 0.00 0.00 89 1013.3
20240225123903 56 162 0.0 2.0 0.00 0.00 0.00 89 1013.4
20240225123804 56 161 1.0 2.0 0.00 0.00 0.00 88 1013.4
20240225123704 56 172 1.0 2.0 0.00 0.00 0.00 89 1013.3
20240225123604 55 173 1.0 2.0 0.00 0.00 0.00 89 1013.2
20240225123503 55 175 1.0 2.0 0.00 0.00 0.00 89 1013.3
20240225123403 55 175 1.0 2.0 0.00 0.00 0.00 89 1013.5
20240225123303 55 175 1.0 2.0 0.00 0.00 0.00 89 1013.4
20240225123202 55 175 1.0 2.0 0.00 0.00 0.00 89 1013.4
20240225123102 55 176 1.0 2.0 0.00 0.00 0.00 88 1013.3
20240225123002 55 175 1.0 2.0 0.00 0.00 0.00 88 1013.4
20240225122902 55 175 1.0 3.0 0.00 0.00 0.00 88 1013.4
20240225122803 55 179 1.0 3.0 0.00 0.00 0.00 88 1013.3
20240225122702 55 180 0.0 3.0 0.00 0.00 0.00 88 1013.2
20240225122604 55 180 0.0 3.0 0.00 0.00 0.00 88 1013.2
20240225122504 55 180 1.0 3.0 0.00 0.00 0.00 88 1013.1
20240225122403 55 180 1.0 3.0 0.00 0.00 0.00 88 1013.1
20240225122306 55 179 0.0 3.0 0.00 0.00 0.00 88 1013.1
20240225122202 55 179 0.0 3.0 0.00 0.00 0.00 88 1013.1
20240225122103 55 180 1.0 3.0 0.00 0.00 0.00 88 1013.2
20240225122004 55 180 1.0 3.0 0.00 0.00 0.00 88 1013.3
20240225121905 55 173 1.0 3.0 0.00 0.00 0.00 88 1013.3
20240225121804 55 171 1.0 2.0 0.00 0.00 0.00 88 1013.3
20240225121704 55 169 1.0 2.0 0.00 0.00 0.00 88 1013.3
20240225121602 55 175 1.0 2.0 0.00 0.00 0.00 88 1013.3
20240225121504 55 172 1.0 2.0 0.00 0.00 0.00 88 1013.4
20240225121403 55 172 1.0 2.0 0.00 0.00 0.00 88 1013.4
20240225121302 55 172 1.0 2.0 0.00 0.00 0.00 88 1013.4
20240225121203 55 172 1.0 2.0 0.00 0.00 0.00 88 1013.3
20240225121102 55 171 1.0 2.0 0.00 0.00 0.00 88 1013.3
20240225121004 55 171 1.0 2.0 0.00 0.00 0.00 88 1013.5
20240225120903 55 168 1.0 2.0 0.00 0.00 0.00 88 1013.4
20240225120804 55 168 1.0 2.0 0.00 0.00 0.00 88 1013.4
20240225120704 55 166 1.0 2.0 0.00 0.00 0.00 88 1013.4
20240225120602 55 166 1.0 2.0 0.00 0.00 0.00 88 1013.5
20240225120505 55 166 1.0 2.0 0.00 0.00 0.00 88 1013.5
20240225120402 55 166 1.0 2.0 0.00 0.00 0.00 87 1013.5
20240225120303 55 165 0.0 3.0 0.00 0.00 0.00 88 1013.5
20240225120203 55 164 0.0 3.0 0.00 0.00 0.00 88 1013.4
20240225120103 55 161 1.0 3.0 0.00 0.00 0.00 88 1013.5
20240225120004 55 161 1.0 3.0 0.00 0.00 0.00 88 1013.5
20240225115903 55 161 1.0 3.0 0.00 0.00 0.00 88 1013.5
20240225115803 55 161 1.0 3.0 0.00 0.00 0.00 88 1013.4
20240225115703 55 161 1.0 3.0 0.00 0.00 0.00 88 1013.3
20240225115603 55 161 1.0 3.0 0.00 0.00 0.00 88 1013.3
20240225115503 55 161 1.0 3.0 0.00 0.00 0.00 87 1013.3
20240225115403 55 162 1.0 3.0 0.00 0.00 0.00 87 1013.4
20240225115306 55 171 1.0 2.0 0.00 0.00 0.00 87 1013.3
20240225115204 55 169 0.0 2.0 0.00 0.00 0.00 87 1013.4
20240225115103 55 169 0.0 2.0 0.00 0.00 0.00 87 1013.4
20240225115003 55 169 0.0 2.0 0.00 0.00 0.00 87 1013.4
20240225114902 55 168 0.0 2.0 0.00 0.00 0.00 87 1013.5
20240225114803 55 168 1.0 2.0 0.00 0.00 0.00 87 1013.4
20240225114704 55 168 1.0 2.0 0.00 0.00 0.00 87 1013.5
20240225114604 55 169 0.0 2.0 0.00 0.00 0.00 87 1013.5
20240225114505 55 169 0.0 2.0 0.00 0.00 0.00 87 1013.4
20240225114404 55 169 0.0 2.0 0.00 0.00 0.00 87 1013.3
20240225114303 55 168 1.0 2.0 0.00 0.00 0.00 87 1013.2
20240225114202 55 168 0.0 2.0 0.00 0.00 0.00 87 1013.3
20240225114103 55 171 0.0 2.0 0.00 0.00 0.00 87 1013.3
20240225114003 55 169 1.0 2.0 0.00 0.00 0.00 87 1013.4
20240225113903 55 169 1.0 2.0 0.00 0.00 0.00 87 1013.3
20240225113804 55 171 0.0 2.0 0.00 0.00 0.00 87 1013.4
20240225113704 55 171 0.0 2.0 0.00 0.00 0.00 87 1013.4
20240225113605 55 171 0.0 2.0 0.00 0.00 0.00 87 1013.4
20240225113503 55 176 0.0 2.0 0.00 0.00 0.00 87 1013.4
20240225113403 55 176 0.0 3.0 0.00 0.00 0.00 87 1013.5
20240225113303 55 176 1.0 3.0 0.00 0.00 0.00 87 1013.4
20240225113202 55 175 1.0 3.0 0.00 0.00 0.00 87 1013.4
20240225113104 55 175 1.0 3.0 0.00 0.00 0.00 87 1013.4
20240225113003 55 175 1.0 3.0 0.00 0.00 0.00 87 1013.3
20240225112902 55 175 0.0 3.0 0.00 0.00 0.00 87 1013.4
20240225112803 55 178 0.0 3.0 0.00 0.00 0.00 87 1013.3
20240225112702 55 178 1.0 3.0 0.00 0.00 0.00 87 1013.4
20240225112604 55 178 1.0 3.0 0.00 0.00 0.00 87 1013.4
20240225112503 55 178 1.0 3.0 0.00 0.00 0.00 87 1013.3
20240225112403 55 178 1.0 2.0 0.00 0.00 0.00 87 1013.4
20240225112306 55 178 0.0 2.0 0.00 0.00 0.00 87 1013.4
20240225112203 55 178 0.0 2.0 0.00 0.00 0.00 87 1013.5
20240225112103 55 178 0.0 2.0 0.00 0.00 0.00 87 1013.4
20240225112002 55 178 0.0 2.0 0.00 0.00 0.00 87 1013.4
20240225111904 55 178 1.0 2.0 0.00 0.00 0.00 87 1013.4
20240225111803 55 178 0.0 2.0 0.00 0.00 0.00 87 1013.4
20240225111704 55 178 0.0 3.0 0.00 0.00 0.00 87 1013.4
20240225111603 55 178 0.0 3.0 0.00 0.00 0.00 87 1013.4
20240225111502 55 178 0.0 3.0 0.00 0.00 0.00 87 1013.4
20240225111403 55 172 0.0 3.0 0.00 0.00 0.00 87 1013.3
20240225111302 55 172 0.0 3.0 0.00 0.00 0.00 87 1013.3
20240225111204 55 172 1.0 3.0 0.00 0.00 0.00 87 1013.3
20240225111104 55 172 1.0 3.0 0.00 0.00 0.00 87 1013.4
20240225111002 55 172 1.0 3.0 0.00 0.00 0.00 87 1013.3
20240225110904 55 172 1.0 3.0 0.00 0.00 0.00 87 1013.4
20240225110802 55 172 1.0 3.0 0.00 0.00 0.00 87 1013.4
20240225110703 55 169 0.0 3.0 0.00 0.00 0.00 87 1013.4
20240225110602 55 169 0.0 3.0 0.00 0.00 0.00 87 1013.4
20240225110504 55 169 1.0 3.0 0.00 0.00 0.00 87 1013.5
20240225110404 55 169 1.0 3.0 0.00 0.00 0.00 87 1013.4
20240225110302 55 169 1.0 3.0 0.00 0.00 0.00 87 1013.4
20240225110203 55 172 1.0 3.0 0.00 0.00 0.00 87 1013.3
20240225110102 55 172 1.0 3.0 0.00 0.00 0.00 87 1013.2
20240225110002 55 180 1.0 2.0 0.00 0.00 0.00 87 1013.3
20240225105904 55 179 0.0 2.0 0.00 0.00 0.00 87 1013.3
20240225105804 55 180 1.0 2.0 0.00 0.00 0.00 87 1013.3
20240225105703 55 179 1.0 2.0 0.00 0.00 0.00 87 1013.3
20240225105604 55 179 1.0 2.0 0.00 0.00 0.00 87 1013.3
20240225105504 55 179 1.0 2.0 0.00 0.00 0.00 87 1013.4
20240225105404 54 179 1.0 2.0 0.00 0.00 0.00 87 1013.4
20240225105305 54 179 0.0 2.0 0.00 0.00 0.00 87 1013.4
20240225105202 54 179 0.0 2.0 0.00 0.00 0.00 86 1013.4
20240225105102 54 179 1.0 2.0 0.00 0.00 0.00 86 1013.4
20240225105004 54 179 1.0 2.0 0.00 0.00 0.00 87 1013.3
20240225104903 54 180 1.0 2.0 0.00 0.00 0.00 87 1013.3
20240225104804 54 179 0.0 2.0 0.00 0.00 0.00 87 1013.3
20240225104702 54 179 0.0 2.0 0.00 0.00 0.00 87 1013.3
20240225104602 54 179 0.0 1.0 0.00 0.00 0.00 87 1013.4
20240225104504 54 179 0.0 1.0 0.00 0.00 0.00 86 1013.3
20240225104404 54 180 0.0 1.0 0.00 0.00 0.00 86 1013.4
20240225104304 54 180 0.0 1.0 0.00 0.00 0.00 86 1013.3
20240225104204 54 180 0.0 1.0 0.00 0.00 0.00 86 1013.4
20240225104102 54 180 0.0 2.0 0.00 0.00 0.00 86 1013.5
20240225104003 54 180 0.0 2.0 0.00 0.00 0.00 86 1013.4
20240225103903 54 180 0.0 2.0 0.00 0.00 0.00 86 1013.5
20240225103802 54 180 0.0 2.0 0.00 0.00 0.00 86 1013.4
20240225103705 54 180 0.0 2.0 0.00 0.00 0.00 86 1013.4
20240225103602 54 180 0.0 2.0 0.00 0.00 0.00 86 1013.4
20240225103504 54 180 0.0 2.0 0.00 0.00 0.00 86 1013.3
20240225103404 54 180 0.0 2.0 0.00 0.00 0.00 86 1013.3
20240225103303 54 180 1.0 2.0 0.00 0.00 0.00 86 1013.3
20240225103201 54 180 1.0 2.0 0.00 0.00 0.00 86 1013.2
20240225103104 54 182 0.0 2.0 0.00 0.00 0.00 86 1013.2
20240225103003 54 182 0.0 2.0 0.00 0.00 0.00 86 1013.3
20240225102902 54 182 1.0 2.0 0.00 0.00 0.00 86 1013.3
20240225102803 54 182 1.0 2.0 0.00 0.00 0.00 86 1013.3
20240225102702 54 182 1.0 2.0 0.00 0.00 0.00 86 1013.4
20240225102602 54 182 1.0 2.0 0.00 0.00 0.00 86 1013.5
20240225102502 54 182 0.0 2.0 0.00 0.00 0.00 86 1013.5
20240225102402 55 182 0.0 2.0 0.00 0.00 0.00 86 1013.5
20240225102305 55 182 0.0 2.0 0.00 0.00 0.00 86 1013.5
20240225102202 54 182 0.0 2.0 0.00 0.00 0.00 86 1013.5
20240225102102 54 180 0.0 1.0 0.00 0.00 0.00 85 1013.4
20240225102003 54 180 0.0 1.0 0.00 0.00 0.00 85 1013.4
20240225101903 55 180 0.0 2.0 0.00 0.00 0.00 85 1013.4
20240225101804 55 180 0.0 2.0 0.00 0.00 0.00 85 1013.4
20240225101702 55 180 0.0 2.0 0.00 0.00 0.00 85 1013.4
20240225101604 55 180 0.0 2.0 0.00 0.00 0.00 85 1013.5
20240225101502 55 180 0.0 2.0 0.00 0.00 0.00 85 1013.4
20240225101403 55 180 0.0 2.0 0.00 0.00 0.00 85 1013.4
20240225101302 55 180 0.0 2.0 0.00 0.00 0.00 85 1013.4
20240225101202 55 180 0.0 2.0 0.00 0.00 0.00 85 1013.5
20240225101102 55 180 0.0 2.0 0.00 0.00 0.00 85 1013.5
20240225101003 55 180 0.0 2.0 0.00 0.00 0.00 85 1013.5
20240225100904 55 180 0.0 2.0 0.00 0.00 0.00 85 1013.5
20240225100802 55 180 0.0 2.0 0.00 0.00 0.00 85 1013.5
20240225100703 55 180 0.0 2.0 0.00 0.00 0.00 85 1013.5
20240225100602 55 180 0.0 2.0 0.00 0.00 0.00 85 1013.5
20240225100503 55 180 1.0 2.0 0.00 0.00 0.00 85 1013.5
20240225100404 55 180 1.0 2.0 0.00 0.00 0.00 85 1013.4
20240225100302 55 180 0.0 2.0 0.00 0.00 0.00 85 1013.5
20240225100204 55 180 0.0 2.0 0.00 0.00 0.00 86 1013.5
20240225100103 55 180 0.0 2.0 0.00 0.00 0.00 86 1013.4
20240225100004 55 180 0.0 2.0 0.00 0.00 0.00 86 1013.5
20240225095904 55 182 1.0 2.0 0.00 0.00 0.00 86 1013.6
20240225095802 55 180 0.0 2.0 0.00 0.00 0.00 86 1013.5
20240225095703 54 182 0.0 2.0 0.00 0.00 0.00 86 1013.5
20240225095604 54 182 0.0 2.0 0.00 0.00 0.00 86 1013.5
20240225095503 54 182 0.0 2.0 0.00 0.00 0.00 86 1013.5
20240225095405 54 182 1.0 2.0 0.00 0.00 0.00 86 1013.5
20240225095306 54 182 1.0 2.0 0.00 0.00 0.00 86 1013.5
20240225095203 54 182 1.0 2.0 0.00 0.00 0.00 86 1013.4
20240225095103 54 182 1.0 2.0 0.00 0.00 0.00 86 1013.4
20240225095004 54 183 0.0 2.0 0.00 0.00 0.00 86 1013.4
20240225094904 54 183 1.0 2.0 0.00 0.00 0.00 86 1013.4
20240225094803 54 183 0.0 2.0 0.00 0.00 0.00 86 1013.4
20240225094703 54 185 0.0 2.0 0.00 0.00 0.00 86 1013.4
20240225094604 54 185 0.0 2.0 0.00 0.00 0.00 86 1013.5
20240225094503 54 185 0.0 2.0 0.00 0.00 0.00 86 1013.5
20240225094403 54 185 0.0 2.0 0.00 0.00 0.00 86 1013.5
20240225094249 54 185 0.0 0.0 0.00 0.00 0.00 86 1013.5
20240225094147 54 185 0.0 0.0 0.00 0.00 0.00 86 1013.5
20240225094041 54 185 0.0 0.0 0.00 0.00 0.00 86 1013.5
20240225093940 54 185 0.0 0.0 0.00 0.00 0.00 86 1013.5
20240225093839 54 185 0.0 0.0 0.00 0.00 0.00 85 1013.4
20240225093736 54 185 0.0 0.0 0.00 0.00 0.00 85 1013.5
20240225093632 54 185 0.0 0.0 0.00 0.00 0.00 85 1013.5
20240225093531 54 185 0.0 0.0 0.00 0.00 0.00 85 1013.5
20240225093431 54 185 0.0 0.0 0.00 0.00 0.00 85 1013.5
20240225093332 54 185 0.0 0.0 0.00 0.00 0.00 85 1013.4
20240225093214 54 185 0.0 0.0 0.00 0.00 0.00 85 1013.6
20240225093112 54 185 0.0 0.0 0.00 0.00 0.00 85 1013.6
20240225093011 54 185 0.0 0.0 0.00 0.00 0.00 85 1013.6
20240225092907 54 185 0.0 0.0 0.00 0.00 0.00 85 1013.6
20240225092806 54 185 0.0 0.0 0.00 0.00 0.00 85 1013.6
20240225092707 54 185 0.0 0.0 0.00 0.00 0.00 85 1013.6
20240225092606 54 185 0.0 0.0 0.00 0.00 0.00 85 1013.5
20240225092508 54 185 0.0 0.0 0.00 0.00 0.00 85 1013.5
20240225092405 54 185 0.0 0.0 0.00 0.00 0.00 85 1013.5
20240225092306 54 185 0.0 0.0 0.00 0.00 0.00 85 1013.5
20240225092207 54 185 0.0 0.0 0.00 0.00 0.00 85 1013.5
20240225092105 54 185 0.0 0.0 0.00 0.00 0.00 85 1013.5
20240225092006 54 185 0.0 0.0 0.00 0.00 0.00 85 1013.4
20240225091905 54 185 0.0 0.0 0.00 0.00 0.00 85 1013.5
20240225091805 54 185 0.0 0.0 0.00 0.00 0.00 85 1013.5
20240225091708 54 185 0.0 0.0 0.00 0.00 0.00 85 1013.6
20240225091605 54 185 0.0 0.0 0.00 0.00 0.00 85 1013.5
20240225091508 54 185 0.0 0.0 0.00 0.00 0.00 85 1013.6
20240225091406 54 185 0.0 0.0 0.00 0.00 0.00 84 1013.5
20240225091308 54 185 0.0 0.0 0.00 0.00 0.00 84 1013.5
20240225091205 54 185 0.0 0.0 0.00 0.00 0.00 84 1013.6
20240225091106 54 185 0.0 0.0 0.00 0.00 0.00 84 1013.6
20240225091005 55 185 0.0 0.0 0.00 0.00 0.00 84 1013.5
20240225090907 55 185 0.0 0.0 0.00 0.00 0.00 84 1013.6
20240225090806 55 185 0.0 0.0 0.00 0.00 0.00 84 1013.5
20240225090706 55 185 0.0 0.0 0.00 0.00 0.00 84 1013.6
20240225090605 55 185 0.0 0.0 0.00 0.00 0.00 84 1013.6
20240225090505 55 185 0.0 0.0 0.00 0.00 0.00 84 1013.6
20240225090406 55 185 0.0 0.0 0.00 0.00 0.00 84 1013.7
20240225090307 55 185 0.0 0.0 0.00 0.00 0.00 84 1013.7
20240225090205 55 185 0.0 0.0 0.00 0.00 0.00 83 1013.7
20240225090107 55 185 0.0 0.0 0.00 0.00 0.00 83 1013.7
20240225090004 55 185 0.0 0.0 0.00 0.00 0.00 83 1013.7
20240225085906 55 185 0.0 0.0 0.00 0.00 0.00 83 1013.7
20240225085807 55 185 0.0 0.0 0.00 0.00 0.00 83 1013.7
20240225085705 55 185 0.0 0.0 0.00 0.00 0.00 83 1013.7
20240225085607 55 185 0.0 0.0 0.00 0.00 0.00 83 1013.7
20240225085507 55 185 0.0 0.0 0.00 0.00 0.00 83 1013.7
20240225085407 55 185 0.0 0.0 0.00 0.00 0.00 83 1013.6
20240225085306 55 185 0.0 0.0 0.00 0.00 0.00 83 1013.6
20240225085205 55 185 0.0 0.0 0.00 0.00 0.00 83 1013.6
20240225085105 55 185 0.0 0.0 0.00 0.00 0.00 83 1013.7
20240225085005 55 185 0.0 0.0 0.00 0.00 0.00 83 1013.7
20240225084905 55 185 0.0 0.0 0.00 0.00 0.00 83 1013.7
20240225084804 55 185 0.0 0.0 0.00 0.00 0.00 83 1013.7
20240225084705 55 185 0.0 0.0 0.00 0.00 0.00 83 1013.6
20240225084604 55 185 0.0 0.0 0.00 0.00 0.00 83 1013.7
20240225084505 55 185 0.0 0.0 0.00 0.00 0.00 83 1013.6
20240225084405 55 185 0.0 0.0 0.00 0.00 0.00 83 1013.6
20240225084305 55 185 0.0 0.0 0.00 0.00 0.00 83 1013.6
20240225084205 56 185 0.0 0.0 0.00 0.00 0.00 83 1013.6
20240225084104 55 185 0.0 0.0 0.00 0.00 0.00 83 1013.5
20240225084005 56 185 0.0 0.0 0.00 0.00 0.00 83 1013.6
20240225083905 56 185 0.0 0.0 0.00 0.00 0.00 83 1013.6
20240225083805 56 185 0.0 0.0 0.00 0.00 0.00 82 1013.6
20240225083704 56 185 0.0 0.0 0.00 0.00 0.00 83 1013.7
20240225083605 56 185 0.0 0.0 0.00 0.00 0.00 83 1013.7
20240225083505 56 185 0.0 0.0 0.00 0.00 0.00 83 1013.7
20240225083405 56 185 0.0 0.0 0.00 0.00 0.00 83 1013.7
20240225083304 55 185 0.0 0.0 0.00 0.00 0.00 83 1013.7
20240225083206 56 185 0.0 0.0 0.00 0.00 0.00 82 1013.7
20240225083104 56 185 0.0 0.0 0.00 0.00 0.00 82 1013.7
20240225083005 56 185 0.0 0.0 0.00 0.00 0.00 82 1013.7
20240225082907 56 185 0.0 0.0 0.00 0.00 0.00 82 1013.6
20240225082805 56 185 0.0 0.0 0.00 0.00 0.00 82 1013.6
20240225082704 56 185 0.0 0.0 0.00 0.00 0.00 82 1013.7
20240225082606 56 185 0.0 0.0 0.00 0.00 0.00 82 1013.7
20240225082506 56 185 0.0 0.0 0.00 0.00 0.00 82 1013.7
20240225082404 56 185 0.0 0.0 0.00 0.00 0.00 82 1013.7
20240225082307 55 185 0.0 0.0 0.00 0.00 0.00 82 1013.9
20240225082204 56 185 0.0 0.0 0.00 0.00 0.00 82 1013.9
20240225082104 56 185 0.0 0.0 0.00 0.00 0.00 82 1013.9
20240225082005 56 185 0.0 0.0 0.00 0.00 0.00 82 1013.9
20240225081904 56 185 0.0 0.0 0.00 0.00 0.00 82 1013.9
20240225081805 56 185 0.0 0.0 0.00 0.00 0.00 82 1013.8
20240225081705 56 185 0.0 0.0 0.00 0.00 0.00 81 1013.9
20240225081604 56 185 0.0 0.0 0.00 0.00 0.00 81 1013.9
20240225081503 56 185 0.0 0.0 0.00 0.00 0.00 81 1013.9
20240225081404 56 185 0.0 0.0 0.00 0.00 0.00 81 1013.8
20240225081305 56 185 0.0 0.0 0.00 0.00 0.00 81 1013.9
20240225081205 56 185 0.0 0.0 0.00 0.00 0.00 81 1014.0
20240225081106 56 185 0.0 0.0 0.00 0.00 0.00 81 1014.0
20240225081004 56 185 0.0 0.0 0.00 0.00 0.00 81 1014.1
20240225080903 56 185 0.0 0.0 0.00 0.00 0.00 81 1014.0
20240225080805 56 185 0.0 0.0 0.00 0.00 0.00 81 1014.1
20240225080705 56 185 0.0 0.0 0.00 0.00 0.00 81 1014.1
20240225080604 56 185 0.0 0.0 0.00 0.00 0.00 81 1014.1
20240225080503 56 185 0.0 0.0 0.00 0.00 0.00 81 1014.0
20240225080404 56 185 0.0 0.0 0.00 0.00 0.00 80 1014.0
20240225080304 56 185 0.0 0.0 0.00 0.00 0.00 80 1014.1
20240225080204 56 185 0.0 1.0 0.00 0.00 0.00 80 1014.0
20240225080104 56 185 0.0 1.0 0.00 0.00 0.00 80 1014.1
20240225080004 56 185 0.0 1.0 0.00 0.00 0.00 80 1014.1
20240225075904 56 185 0.0 1.0 0.00 0.00 0.00 80 1014.2
20240225075804 56 185 0.0 1.0 0.00 0.00 0.00 80 1014.1
20240225075705 56 185 0.0 1.0 0.00 0.00 0.00 80 1014.2
20240225075603 56 185 0.0 1.0 0.00 0.00 0.00 80 1014.2
20240225075504 56 185 0.0 1.0 0.00 0.00 0.00 80 1014.2
20240225075404 56 185 0.0 1.0 0.00 0.00 0.00 80 1014.2
20240225075307 56 185 0.0 1.0 0.00 0.00 0.00 80 1014.3
20240225075205 56 185 0.0 1.0 0.00 0.00 0.00 80 1014.2
20240225075104 57 185 0.0 1.0 0.00 0.00 0.00 80 1014.2
20240225075004 57 185 0.0 1.0 0.00 0.00 0.00 80 1014.3
20240225074904 57 185 0.0 1.0 0.00 0.00 0.00 80 1014.1
20240225074803 57 185 0.0 1.0 0.00 0.00 0.00 80 1014.1
20240225074703 57 185 0.0 1.0 0.00 0.00 0.00 79 1014.2
20240225074603 56 186 0.0 1.0 0.00 0.00 0.00 79 1014.2
20240225074504 57 186 0.0 0.0 0.00 0.00 0.00 79 1014.2
20240225074403 57 186 0.0 0.0 0.00 0.00 0.00 80 1014.3
20240225074303 57 186 0.0 0.0 0.00 0.00 0.00 79 1014.3
20240225074204 57 186 0.0 0.0 0.00 0.00 0.00 79 1014.4
20240225074104 57 186 0.0 0.0 0.00 0.00 0.00 79 1014.3
20240225074005 57 186 0.0 0.0 0.00 0.00 0.00 79 1014.3
20240225073903 57 186 0.0 0.0 0.00 0.00 0.00 79 1014.4
20240225073804 57 186 0.0 0.0 0.00 0.00 0.00 79 1014.3
20240225073703 57 186 0.0 0.0 0.00 0.00 0.00 79 1014.4
20240225073603 57 186 0.0 0.0 0.00 0.00 0.00 79 1014.3
20240225073504 57 186 0.0 0.0 0.00 0.00 0.00 79 1014.3
20240225073403 57 186 0.0 0.0 0.00 0.00 0.00 78 1014.3
20240225073302 57 186 0.0 1.0 0.00 0.00 0.00 78 1014.3
20240225073202 57 186 0.0 1.0 0.00 0.00 0.00 78 1014.3
20240225073100 57 186 0.0 1.0 0.00 0.00 0.00 78 1014.3
20240225073000 57 186 0.0 1.0 0.00 0.00 0.00 78 1014.5
20240225072857 57 186 0.0 1.0 0.00 0.00 0.00 78 1014.4
20240225072757 57 186 0.0 1.0 0.00 0.00 0.00 78 1014.5
20240225072656 57 185 0.0 1.0 0.00 0.00 0.00 78 1014.5
20240225072554 57 185 0.0 1.0 0.00 0.00 0.00 78 1014.5
20240225072454 57 185 0.0 1.0 0.00 0.00 0.00 78 1014.5
20240225072349 57 185 0.0 1.0 0.00 0.00 0.00 78 1014.4
20240225072246 57 185 0.0 1.0 0.00 0.00 0.00 78 1014.5
20240225072146 57 185 0.0 1.0 0.00 0.00 0.00 78 1014.4
20240225072043 57 185 0.0 1.0 0.00 0.00 0.00 78 1014.4
20240225071942 57 185 0.0 1.0 0.00 0.00 0.00 78 1014.3
20240225071842 57 185 0.0 1.0 0.00 0.00 0.00 78 1014.4
20240225071740 57 185 0.0 1.0 0.00 0.00 0.00 77 1014.5
20240225071640 57 185 0.0 1.0 0.00 0.00 0.00 77 1014.4
20240225071536 57 185 0.0 1.0 0.00 0.00 0.00 77 1014.5
20240225071435 57 185 0.0 1.0 0.00 0.00 0.00 77 1014.6
20240225071334 57 186 0.0 1.0 0.00 0.00 0.00 77 1014.5
20240225071231 57 186 0.0 1.0 0.00 0.00 0.00 77 1014.6
20240225071129 57 186 0.0 1.0 0.00 0.00 0.00 77 1014.5
20240225071029 57 186 0.0 1.0 0.00 0.00 0.00 77 1014.5
20240225070928 57 186 0.0 1.0 0.00 0.00 0.00 77 1014.6
20240225070826 57 186 0.0 1.0 0.00 0.00 0.00 77 1014.5
20240225070725 58 185 0.0 1.0 0.00 0.00 0.00 77 1014.5
20240225070615 57 186 0.0 1.0 0.00 0.00 0.00 77 1014.5
20240225070513 58 186 0.0 1.0 0.00 0.00 0.00 77 1014.5
20240225070413 58 186 0.0 1.0 0.00 0.00 0.00 77 1014.5
20240225070305 58 186 0.0 1.0 0.00 0.00 0.00 77 1014.5
20240225070203 58 186 0.0 1.0 0.00 0.00 0.00 77 1014.4
20240225070105 58 185 0.0 1.0 0.00 0.00 0.00 77 1014.6
20240225070003 58 186 0.0 1.0 0.00 0.00 0.00 76 1014.6
20240225065903 58 186 0.0 1.0 0.00 0.00 0.00 76 1014.5
20240225065803 58 186 0.0 1.0 0.00 0.00 0.00 77 1014.6
20240225065702 58 186 0.0 1.0 0.00 0.00 0.00 77 1014.6
20240225065603 58 186 0.0 1.0 0.00 0.00 0.00 76 1014.6
20240225065503 58 186 0.0 1.0 0.00 0.00 0.00 76 1014.6
20240225065404 58 186 0.0 1.0 0.00 0.00 0.00 76 1014.6
20240225065306 58 186 0.0 1.0 0.00 0.00 0.00 76 1014.5
20240225065203 58 186 0.0 2.0 0.00 0.00 0.00 76 1014.6
20240225065103 58 185 0.0 2.0 0.00 0.00 0.00 76 1014.6
20240225065002 58 185 0.0 2.0 0.00 0.00 0.00 76 1014.6
20240225064902 58 185 0.0 2.0 0.00 0.00 0.00 76 1014.6
20240225064805 58 186 0.0 2.0 0.00 0.00 0.00 76 1014.6
20240225064702 58 186 0.0 2.0 0.00 0.00 0.00 76 1014.7
20240225064603 58 186 0.0 2.0 0.00 0.00 0.00 76 1014.8
20240225064503 58 186 0.0 2.0 0.00 0.00 0.00 76 1014.7
20240225064403 58 185 1.0 2.0 0.00 0.00 0.00 76 1014.8
20240225064301 58 185 1.0 2.0 0.00 0.00 0.00 76 1014.8
20240225064157 58 186 0.0 2.0 0.00 0.00 0.00 76 1014.7
20240225064033 58 186 0.0 2.0 0.00 0.00 0.00 76 1014.8
20240225063932 58 186 0.0 2.0 0.00 0.00 0.00 76 1014.7
20240225063830 58 186 0.0 2.0 0.00 0.00 0.00 76 1014.6
20240225063731 58 186 1.0 2.0 0.00 0.00 0.00 76 1014.7
20240225063629 58 186 0.0 2.0 0.00 0.00 0.00 76 1014.6
20240225063527 58 186 0.0 2.0 0.00 0.00 0.00 76 1014.7
20240225063426 58 186 0.0 2.0 0.00 0.00 0.00 76 1014.6
20240225063323 58 189 1.0 2.0 0.00 0.00 0.00 76 1014.6
20240225063224 58 189 1.0 2.0 0.00 0.00 0.00 76 1014.7
20240225063114 58 189 1.0 2.0 0.00 0.00 0.00 76 1014.6
20240225063007 58 179 1.0 2.0 0.00 0.00 0.00 75 1014.7
20240225062902 59 179 1.0 2.0 0.00 0.00 0.00 75 1014.7
20240225062803 59 178 1.0 2.0 0.00 0.00 0.00 75 1014.6
20240225062703 59 178 0.0 2.0 0.00 0.00 0.00 75 1014.7
20240225062602 59 178 0.0 2.0 0.00 0.00 0.00 75 1014.6
20240225062504 59 178 1.0 2.0 0.00 0.00 0.00 75 1014.6
20240225062404 59 178 1.0 2.0 0.00 0.00 0.00 75 1014.6
20240225062306 59 178 1.0 2.0 0.00 0.00 0.00 75 1014.5
20240225062202 59 178 1.0 2.0 0.00 0.00 0.00 75 1014.5
20240225062105 59 178 1.0 2.0 0.00 0.00 0.00 75 1014.5
20240225062004 59 178 1.0 3.0 0.00 0.00 0.00 75 1014.5
20240225061902 59 178 1.0 3.0 0.00 0.00 0.00 75 1014.6
20240225061802 59 175 1.0 3.0 0.00 0.00 0.00 75 1014.6
20240225061705 59 175 1.0 3.0 0.00 0.00 0.00 75 1014.6
20240225061604 59 172 1.0 3.0 0.00 0.00 0.00 75 1014.6
20240225061505 59 171 0.0 3.0 0.00 0.00 0.00 75 1014.6
20240225061402 59 171 0.0 3.0 0.00 0.00 0.00 75 1014.7
20240225061303 59 169 1.0 3.0 0.00 0.00 0.00 74 1014.7
20240225061203 59 169 1.0 3.0 0.00 0.00 0.00 74 1014.8
20240225061102 59 169 1.0 3.0 0.00 0.00 0.00 74 1014.8
20240225061003 59 155 0.0 2.0 0.00 0.00 0.00 74 1014.7
20240225060902 59 155 0.0 2.0 0.00 0.00 0.00 74 1014.6
20240225060803 59 157 1.0 2.0 0.00 0.00 0.00 74 1014.6
20240225060702 59 157 1.0 2.0 0.00 0.00 0.00 74 1014.6
20240225060602 59 157 0.0 2.0 0.00 0.00 0.00 74 1014.7
20240225060502 59 157 1.0 2.0 0.00 0.00 0.00 74 1014.6
20240225060403 59 157 1.0 2.0 0.00 0.00 0.00 74 1014.7
20240225060303 59 157 1.0 2.0 0.00 0.00 0.00 74 1014.7
20240225060202 59 157 1.0 2.0 0.00 0.00 0.00 74 1014.7
20240225060102 59 157 1.0 2.0 0.00 0.00 0.00 74 1014.7
20240225060003 59 157 1.0 2.0 0.00 0.00 0.00 74 1014.7
20240225055902 59 157 1.0 2.0 0.00 0.00 0.00 73 1014.7
20240225055802 59 157 0.0 2.0 0.00 0.00 0.00 73 1014.7
20240225055703 59 157 1.0 2.0 0.00 0.00 0.00 73 1014.7
20240225055602 59 157 1.0 2.0 0.00 0.00 0.00 73 1014.7
20240225055503 59 157 1.0 2.0 0.00 0.00 0.00 73 1014.8
20240225055402 59 154 1.0 2.0 0.00 0.00 0.00 73 1014.6
20240225055305 59 169 1.0 1.0 0.00 0.00 0.00 73 1014.6
20240225055202 59 169 1.0 1.0 0.00 0.00 0.00 73 1014.6
20240225055103 59 169 1.0 1.0 0.00 0.00 0.00 73 1014.6
20240225055004 59 169 1.0 1.0 0.00 0.00 0.00 73 1014.6
20240225054902 59 169 1.0 1.0 0.00 0.00 0.00 73 1014.6
20240225054803 59 169 1.0 1.0 0.00 0.00 0.00 73 1014.8
20240225054703 59 169 1.0 1.0 0.00 0.00 0.00 73 1014.8
20240225054602 59 169 1.0 1.0 0.00 0.00 0.00 73 1014.7
20240225054502 0 166 1.0 1.0 0.00 0.00 0.00 1014.8
20240225054403 0 0.0 0.0 0.00 0.00 0.00 1014.8
20240225054302 0 0.0 0.0 0.00 0.00 0.00 1014.8
20240225054203 0 0.0 0.0 0.00 0.00 0.00 1014.8
20240225054104 0 0.0 0.0 0.00 0.00 0.00 1014.8
20240225054003 0 0.0 0.0 0.00 0.00 0.00 1014.8
20240225053903 60 172 1.0 2.0 0.00 0.00 0.00 71 1014.8
20240225053803 60 172 1.0 2.0 0.00 0.00 0.00 71 1014.8
20240225053705 60 172 1.0 2.0 0.00 0.00 0.00 71 1014.9
20240225053603 60 172 1.0 2.0 0.00 0.00 0.00 71 1014.8
20240225053505 60 172 1.0 2.0 0.00 0.00 0.00 71 1014.8
20240225053403 60 172 1.0 2.0 0.00 0.00 0.00 71 1014.9
20240225053303 60 172 1.0 2.0 0.00 0.00 0.00 71 1015.0
20240225053203 60 172 1.0 2.0 0.00 0.00 0.00 71 1014.9
20240225053104 60 172 1.0 2.0 0.00 0.00 0.00 71 1015.0
20240225053002 60 172 1.0 2.0 0.00 0.00 0.00 71 1015.0
20240225052903 60 172 1.0 2.0 0.00 0.00 0.00 71 1015.0
20240225052803 60 172 1.0 2.0 0.00 0.00 0.00 71 1015.0
20240225052704 60 172 1.0 2.0 0.00 0.00 0.00 71 1014.9
20240225052604 60 172 1.0 2.0 0.00 0.00 0.00 71 1015.0
20240225052504 60 188 1.0 2.0 0.00 0.00 0.00 71 1015.0
20240225052403 60 192 1.0 2.0 0.00 0.00 0.00 71 1014.8
20240225052305 60 192 1.0 2.0 0.00 0.00 0.00 70 1014.9
20240225052203 60 192 1.0 2.0 0.00 0.00 0.00 70 1014.8
20240225052103 60 193 1.0 2.0 0.00 0.00 0.00 70 1014.9
20240225052005 60 192 1.0 2.0 0.00 0.00 0.00 70 1014.9
20240225051904 60 192 1.0 2.0 0.00 0.00 0.00 70 1014.9
20240225051803 60 190 1.0 2.0 0.00 0.00 0.00 70 1015.0
20240225051704 60 185 1.0 2.0 0.00 0.00 0.00 70 1014.9
20240225051604 60 185 1.0 2.0 0.00 0.00 0.00 70 1015.0
20240225051506 60 185 1.0 2.0 0.00 0.00 0.00 70 1015.0
20240225051405 60 185 1.0 2.0 0.00 0.00 0.00 69 1015.0
20240225051302 60 185 1.0 2.0 0.00 0.00 0.00 69 1015.0
20240225051204 60 185 1.0 2.0 0.00 0.00 0.00 69 1014.9
20240225051102 60 185 1.0 2.0 0.00 0.00 0.00 69 1015.0
20240225051004 60 185 1.0 2.0 0.00 0.00 0.00 69 1014.9
20240225050902 60 185 1.0 2.0 0.00 0.00 0.00 69 1014.8
20240225050804 60 186 1.0 2.0 0.00 0.00 0.00 69 1014.8
20240225050702 60 186 1.0 2.0 0.00 0.00 0.00 69 1014.9
20240225050603 60 200 1.0 2.0 0.00 0.00 0.00 69 1014.9
20240225050506 60 200 1.0 2.0 0.00 0.00 0.00 69 1014.9
20240225050402 60 202 1.0 2.0 0.00 0.00 0.00 69 1014.9
20240225050303 60 203 1.0 2.0 0.00 0.00 0.00 69 1015.0
20240225050204 60 203 1.0 2.0 0.00 0.00 0.00 69 1015.0
20240225050104 60 204 1.0 2.0 0.00 0.00 0.00 68 1015.1
20240225050004 60 196 1.0 2.0 0.00 0.00 0.00 68 1015.1
20240225045903 60 195 1.0 2.0 0.00 0.00 0.00 68 1015.1
20240225045804 61 195 1.0 2.0 0.00 0.00 0.00 68 1015.1
20240225045703 61 196 1.0 2.0 0.00 0.00 0.00 68 1015.1
20240225045604 61 197 2.0 2.0 0.00 0.00 0.00 68 1015.0
20240225045505 61 197 1.0 2.0 0.00 0.00 0.00 68 1015.0
20240225045401 61 197 1.0 2.0 0.00 0.00 0.00 68 1015.0
20240225045306 61 206 1.0 2.0 0.00 0.00 0.00 68 1014.9
20240225045202 61 206 1.0 3.0 0.00 0.00 0.00 68 1014.9
20240225045104 61 206 1.0 3.0 0.00 0.00 0.00 68 1014.9
20240225045002 61 192 1.0 3.0 0.00 0.00 0.00 68 1014.9
20240225044903 61 195 1.0 3.0 0.00 0.00 0.00 68 1014.9
20240225044803 61 195 1.0 3.0 0.00 0.00 0.00 68 1015.0
20240225044703 61 197 1.0 3.0 0.00 0.00 0.00 67 1014.9
20240225044602 61 190 1.0 3.0 0.00 0.00 0.00 67 1015.0
20240225044502 61 190 1.0 3.0 0.00 0.00 0.00 67 1015.0
20240225044402 61 185 1.0 3.0 0.00 0.00 0.00 67 1014.9
20240225044303 61 185 1.0 3.0 0.00 0.00 0.00 67 1014.9
20240225044202 61 192 1.0 3.0 0.00 0.00 0.00 67 1014.9
20240225044105 61 190 1.0 3.0 0.00 0.00 0.00 67 1014.9
20240225044003 61 189 1.0 3.0 0.00 0.00 0.00 67 1014.9
20240225043903 61 189 2.0 3.0 0.00 0.00 0.00 67 1014.9
20240225043802 61 192 2.0 3.0 0.00 0.00 0.00 67 1014.9
20240225043702 61 188 1.0 3.0 0.00 0.00 0.00 67 1014.9
20240225043604 61 186 1.0 3.0 0.00 0.00 0.00 66 1014.9
20240225043502 61 188 2.0 3.0 0.00 0.00 0.00 66 1014.8
20240225043402 61 188 2.0 3.0 0.00 0.00 0.00 66 1014.9
20240225043304 61 193 1.0 3.0 0.00 0.00 0.00 66 1015.0
20240225043202 61 195 2.0 3.0 0.00 0.00 0.00 66 1014.9
20240225043103 61 195 2.0 3.0 0.00 0.00 0.00 66 1015.1
20240225043003 61 192 2.0 3.0 0.00 0.00 0.00 65 1015.0
20240225042858 61 190 2.0 3.0 0.00 0.00 0.00 65 1015.1
20240225042756 61 186 2.0 3.0 0.00 0.00 0.00 65 1015.1
20240225042655 61 188 2.0 3.0 0.00 0.00 0.00 65 1015.2
20240225042555 62 185 2.0 3.0 0.00 0.00 0.00 65 1015.2
20240225042455 62 175 2.0 3.0 0.00 0.00 0.00 65 1015.2
20240225042354 62 173 2.0 3.0 0.00 0.00 0.00 65 1015.1
20240225042254 62 172 1.0 3.0 0.00 0.00 0.00 64 1015.0
20240225042155 62 175 1.0 3.0 0.00 0.00 0.00 64 1015.1
20240225042053 62 175 1.0 3.0 0.00 0.00 0.00 64 1015.1
20240225041953 62 173 1.0 3.0 0.00 0.00 0.00 64 1015.1
20240225041853 62 173 1.0 3.0 0.00 0.00 0.00 64 1015.2
20240225041754 62 175 1.0 3.0 0.00 0.00 0.00 64 1015.2
20240225041654 62 173 1.0 3.0 0.00 0.00 0.00 64 1015.2
20240225041553 62 173 2.0 3.0 0.00 0.00 0.00 63 1015.3
20240225041455 62 173 2.0 3.0 0.00 0.00 0.00 63 1015.2
20240225041354 62 182 1.0 3.0 0.00 0.00 0.00 63 1015.3
20240225041253 62 192 1.0 3.0 0.00 0.00 0.00 63 1015.3
20240225041153 62 185 1.0 3.0 0.00 0.00 0.00 63 1015.2
20240225041055 62 185 1.0 3.0 0.00 0.00 0.00 63 1015.3
20240225040954 62 188 1.0 3.0 0.00 0.00 0.00 62 1015.3
20240225040853 62 186 1.0 3.0 0.00 0.00 0.00 62 1015.2
20240225040754 62 186 1.0 3.0 0.00 0.00 0.00 62 1015.2
20240225040654 62 185 1.0 3.0 0.00 0.00 0.00 62 1015.2
20240225040556 62 193 1.0 3.0 0.00 0.00 0.00 62 1015.2
20240225040454 62 190 1.0 3.0 0.00 0.00 0.00 62 1015.2
20240225040355 62 190 1.0 3.0 0.00 0.00 0.00 62 1015.3
20240225040254 62 186 2.0 3.0 0.00 0.00 0.00 61 1015.2
20240225040153 62 189 2.0 3.0 0.00 0.00 0.00 61 1015.3
20240225040055 62 189 2.0 3.0 0.00 0.00 0.00 61 1015.3
20240225035953 62 197 2.0 3.0 0.00 0.00 0.00 61 1015.3
20240225035856 62 186 2.0 3.0 0.00 0.00 0.00 61 1015.3
20240225035754 62 199 1.0 3.0 0.00 0.00 0.00 61 1015.3
20240225035655 62 199 1.0 3.0 0.00 0.00 0.00 61 1015.3
20240225035553 62 199 2.0 3.0 0.00 0.00 0.00 61 1015.3
20240225035454 63 199 2.0 3.0 0.00 0.00 0.00 60 1015.3
20240225035355 63 165 2.0 3.0 0.00 0.00 0.00 60 1015.2
20240225035254 63 164 2.0 3.0 0.00 0.00 0.00 60 1015.2
20240225035153 63 161 2.0 3.0 0.00 0.00 0.00 60 1015.1
20240225035054 63 165 2.0 3.0 0.00 0.00 0.00 60 1015.2
20240225034953 63 166 2.0 3.0 0.00 0.00 0.00 60 1015.2
20240225034853 63 164 1.0 3.0 0.00 0.00 0.00 60 1015.1
20240225034755 63 162 1.0 3.0 0.00 0.00 0.00 60 1015.2
20240225034654 63 186 2.0 3.0 0.00 0.00 0.00 60 1015.3
20240225034555 63 165 1.0 3.0 0.00 0.00 0.00 59 1015.2
20240225034453 63 169 1.0 3.0 0.00 0.00 0.00 59 1015.1
20240225034352 63 166 1.0 3.0 0.00 0.00 0.00 59 1015.2
20240225034253 63 168 2.0 3.0 0.00 0.00 0.00 59 1015.2
20240225034152 63 171 1.0 3.0 0.00 0.00 0.00 59 1015.3
20240225034054 63 157 1.0 4.0 0.00 0.00 0.00 59 1015.2
20240225033954 63 157 2.0 4.0 0.00 0.00 0.00 59 1015.2
20240225033854 63 159 2.0 4.0 0.00 0.00 0.00 59 1015.1
20240225033753 63 186 1.0 4.0 0.00 0.00 0.00 59 1015.2
20240225033654 63 183 1.0 4.0 0.00 0.00 0.00 59 1015.2
20240225033553 63 185 2.0 4.0 0.00 0.00 0.00 58 1015.2
20240225033454 63 183 2.0 4.0 0.00 0.00 0.00 58 1015.2
20240225033353 63 182 2.0 5.0 0.00 0.00 0.00 58 1015.3
20240225033254 63 171 2.0 5.0 0.00 0.00 0.00 58 1015.3
20240225033154 63 209 2.0 5.0 0.00 0.00 0.00 58 1015.4
20240225033055 63 179 2.0 5.0 0.00 0.00 0.00 57 1015.4
20240225032952 63 178 2.0 5.0 0.00 0.00 0.00 57 1015.4
20240225032853 64 171 2.0 5.0 0.00 0.00 0.00 57 1015.4
20240225032753 64 200 2.0 5.0 0.00 0.00 0.00 57 1015.4
20240225032652 64 190 3.0 5.0 0.00 0.00 0.00 56 1015.3
20240225032554 64 188 3.0 5.0 0.00 0.00 0.00 56 1015.4
20240225032453 63 203 3.0 5.0 0.00 0.00 0.00 56 1015.4
20240225032352 63 192 2.0 5.0 0.00 0.00 0.00 56 1015.3
20240225032252 64 202 2.0 5.0 0.00 0.00 0.00 55 1015.3
20240225032154 64 224 2.0 5.0 0.00 0.00 0.00 55 1015.1
20240225032054 64 179 3.0 5.0 0.00 0.00 0.00 55 1015.1
20240225031952 64 193 3.0 5.0 0.00 0.00 0.00 54 1015.1
20240225031853 64 219 2.0 4.0 0.00 0.00 0.00 54 1015.1
20240225031752 64 189 2.0 4.0 0.00 0.00 0.00 54 1015.2
20240225031652 64 178 2.0 4.0 0.00 0.00 0.00 54 1015.2
20240225031553 64 213 2.0 4.0 0.00 0.00 0.00 53 1015.2
20240225031452 64 221 2.0 4.0 0.00 0.00 0.00 53 1015.2
20240225031354 64 178 2.0 4.0 0.00 0.00 0.00 53 1015.2
20240225031253 64 176 2.0 4.0 0.00 0.00 0.00 53 1015.2
20240225031152 64 171 2.0 4.0 0.00 0.00 0.00 53 1015.2
20240225031052 64 183 2.0 4.0 0.00 0.00 0.00 53 1015.2
20240225030953 64 188 2.0 4.0 0.00 0.00 0.00 53 1015.1
20240225030853 64 185 2.0 4.0 0.00 0.00 0.00 53 1015.2
20240225030752 64 186 2.0 4.0 0.00 0.00 0.00 53 1015.1
20240225030654 64 186 2.0 4.0 0.00 0.00 0.00 53 1015.1
20240225030553 64 171 1.0 4.0 0.00 0.00 0.00 52 1015.1
20240225030452 64 180 1.0 4.0 0.00 0.00 0.00 52 1015.1
20240225030353 64 189 1.0 4.0 0.00 0.00 0.00 52 1015.1
20240225030252 64 188 1.0 4.0 0.00 0.00 0.00 52 1015.1
20240225030154 64 189 2.0 4.0 0.00 0.00 0.00 52 1015.1
20240225030053 64 196 2.0 4.0 0.00 0.00 0.00 51 1015.2
20240225025952 64 192 1.0 3.0 0.00 0.00 0.00 51 1015.2
20240225025853 64 192 1.0 3.0 0.00 0.00 0.00 51 1015.2
20240225025752 64 190 1.0 3.0 0.00 0.00 0.00 51 1015.1
20240225025653 64 190 1.0 3.0 0.00 0.00 0.00 50 1015.2
20240225025553 64 190 1.0 4.0 0.00 0.00 0.00 50 1015.2
20240225025452 64 197 1.0 4.0 0.00 0.00 0.00 50 1015.1
20240225025351 65 189 2.0 4.0 0.00 0.00 0.00 50 1015.2
20240225025252 65 186 2.0 4.0 0.00 0.00 0.00 50 1015.1
20240225025153 65 196 2.0 4.0 0.00 0.00 0.00 50 1015.0
20240225025051 65 189 2.0 4.0 0.00 0.00 0.00 50 1015.0
20240225024953 65 183 2.0 4.0 0.00 0.00 0.00 50 1015.0
20240225024851 65 183 2.0 4.0 0.00 0.00 0.00 49 1015.1
20240225024753 65 180 2.0 5.0 0.00 0.00 0.00 49 1015.0
20240225024652 65 196 2.0 6.0 0.00 0.00 0.00 49 1015.1
20240225024551 65 196 2.0 6.0 0.00 0.00 0.00 49 1015.1
20240225024452 65 173 1.0 6.0 0.00 0.00 0.00 49 1015.0
20240225024351 65 173 2.0 6.0 0.00 0.00 0.00 49 1015.1
20240225024252 65 172 1.0 6.0 0.00 0.00 0.00 48 1015.1
20240225024152 65 183 2.0 6.0 0.00 0.00 0.00 49 1015.1
20240225024053 65 172 2.0 6.0 0.00 0.00 0.00 49 1015.1
20240225023953 65 186 3.0 6.0 0.00 0.00 0.00 48 1015.1
20240225023852 65 168 4.0 6.0 0.00 0.00 0.00 48 1015.0
20240225023752 65 182 4.0 6.0 0.00 0.00 0.00 48 1015.0
20240225023653 65 176 2.0 4.0 0.00 0.00 0.00 48 1015.0
20240225023551 65 200 2.0 4.0 0.00 0.00 0.00 48 1014.9
20240225023451 65 195 3.0 4.0 0.00 0.00 0.00 48 1014.9
20240225023352 65 190 3.0 4.0 0.00 0.00 0.00 48 1014.8
20240225023251 65 162 3.0 4.0 0.00 0.00 0.00 47 1014.9
20240225023151 65 190 3.0 4.0 0.00 0.00 0.00 47 1014.9
20240225023053 66 192 2.0 3.0 0.00 0.00 0.00 47 1014.9
20240225022952 66 192 2.0 3.0 0.00 0.00 0.00 47 1014.9
20240225022852 66 192 2.0 3.0 0.00 0.00 0.00 47 1015.0
20240225022754 66 189 2.0 3.0 0.00 0.00 0.00 46 1015.0
20240225022651 66 192 2.0 3.0 0.00 0.00 0.00 46 1015.0
20240225022553 66 190 2.0 3.0 0.00 0.00 0.00 46 1015.0
20240225022451 66 186 2.0 4.0 0.00 0.00 0.00 46 1015.0
20240225022353 66 185 2.0 4.0 0.00 0.00 0.00 46 1015.1
20240225022251 66 186 2.0 4.0 0.00 0.00 0.00 46 1015.0
20240225022152 66 188 1.0 4.0 0.00 0.00 0.00 46 1014.9
20240225022052 66 193 1.0 4.0 0.00 0.00 0.00 46 1014.9
20240225021952 66 183 1.0 4.0 0.00 0.00 0.00 45 1014.9
20240225021851 66 188 1.0 4.0 0.00 0.00 0.00 45 1014.8
20240225021751 66 188 1.0 5.0 0.00 0.00 0.00 45 1014.8
20240225021652 66 188 2.0 5.0 0.00 0.00 0.00 45 1014.8
20240225021552 67 186 2.0 5.0 0.00 0.00 0.00 45 1014.9
20240225021454 67 192 2.0 5.0 0.00 0.00 0.00 45 1014.9
20240225021351 67 193 2.0 5.0 0.00 0.00 0.00 45 1014.9
20240225021251 67 189 2.0 5.0 0.00 0.00 0.00 45 1014.8
20240225021151 67 207 2.0 5.0 0.00 0.00 0.00 44 1014.8
20240225021050 67 147 2.0 5.0 0.00 0.00 0.00 44 1014.8
20240225020951 67 176 2.0 5.0 0.00 0.00 0.00 44 1014.7
20240225020852 67 190 3.0 5.0 0.00 0.00 0.00 43 1014.8
20240225020751 67 193 2.0 5.0 0.00 0.00 0.00 43 1014.7
20240225020651 67 193 3.0 5.0 0.00 0.00 0.00 43 1014.7
20240225020552 67 188 2.0 5.0 0.00 0.00 0.00 43 1014.6
20240225020451 67 188 2.0 5.0 0.00 0.00 0.00 43 1014.6
20240225020351 67 178 3.0 5.0 0.00 0.00 0.00 43 1014.7
20240225020251 67 190 3.0 5.0 0.00 0.00 0.00 43 1014.6
20240225020151 67 223 2.0 5.0 0.00 0.00 0.00 43 1014.6
20240225020052 67 199 2.0 4.0 0.00 0.00 0.00 43 1014.6
20240225015953 67 195 2.0 4.0 0.00 0.00 0.00 43 1014.8
20240225015850 67 196 2.0 4.0 0.00 0.00 0.00 43 1014.7
20240225015753 68 178 2.0 4.0 0.00 0.00 0.00 43 1014.7
20240225015652 68 185 2.0 4.0 0.00 0.00 0.00 42 1014.7
20240225015552 68 173 2.0 4.0 0.00 0.00 0.00 42 1014.7
20240225015450 68 173 2.0 4.0 0.00 0.00 0.00 42 1014.8
20240225015351 68 186 3.0 4.0 0.00 0.00 0.00 42 1014.8
20240225015250 68 148 2.0 4.0 0.00 0.00 0.00 42 1014.7
20240225015150 68 190 2.0 4.0 0.00 0.00 0.00 41 1014.8
20240225015050 68 189 2.0 4.0 0.00 0.00 0.00 42 1014.8
20240225014950 68 192 2.0 4.0 0.00 0.00 0.00 41 1014.8
20240225014851 68 182 2.0 4.0 0.00 0.00 0.00 41 1014.7
20240225014750 68 172 2.0 4.0 0.00 0.00 0.00 41 1014.6
20240225014652 68 172 2.0 5.0 0.00 0.00 0.00 41 1014.6
20240225014551 68 171 2.0 6.0 0.00 0.00 0.00 41 1014.6
20240225014451 68 180 2.0 6.0 0.00 0.00 0.00 41 1014.6
20240225014352 68 178 2.0 6.0 0.00 0.00 0.00 41 1014.6
20240225014252 69 195 2.0 6.0 0.00 0.00 0.00 41 1014.6
20240225014152 69 193 3.0 6.0 0.00 0.00 0.00 40 1014.7
20240225014050 69 137 2.0 7.0 0.00 0.00 0.00 40 1014.6
20240225013950 69 148 2.0 7.0 0.00 0.00 0.00 40 1014.6
20240225013850 69 206 2.0 7.0 0.00 0.00 0.00 39 1014.6
20240225013750 69 176 3.0 7.0 0.00 0.00 0.00 39 1014.6
20240225013650 69 176 3.0 7.0 0.00 0.00 0.00 39 1014.6
20240225013550 69 183 3.0 7.0 0.00 0.00 0.00 39 1014.6
20240225013451 69 188 4.0 7.0 0.00 0.00 0.00 39 1014.5
20240225013350 69 186 4.0 7.0 0.00 0.00 0.00 39 1014.5
20240225013254 69 250 4.0 7.0 0.00 0.00 0.00 39 1014.5
20240225013152 69 196 4.0 7.0 0.00 0.00 0.00 39 1014.4
20240225013050 69 207 4.0 6.0 0.00 0.00 0.00 39 1014.4
20240225012952 69 190 4.0 6.0 0.00 0.00 0.00 39 1014.4
20240225012850 69 203 3.0 6.0 0.00 0.00 0.00 39 1014.4
20240225012750 69 183 3.0 7.0 0.00 0.00 0.00 39 1014.4
20240225012649 69 206 3.0 7.0 0.00 0.00 0.00 39 1014.4
20240225012549 69 186 3.0 7.0 0.00 0.00 0.00 39 1014.5
20240225012450 69 200 4.0 7.0 0.00 0.00 0.00 38 1014.4
20240225012353 69 192 4.0 7.0 0.00 0.00 0.00 39 1014.4
20240225012251 69 200 4.0 7.0 0.00 0.00 0.00 39 1014.4
20240225012149 69 188 4.0 7.0 0.00 0.00 0.00 40 1014.4
20240225012052 69 199 4.0 7.0 0.00 0.00 0.00 40 1014.4
20240225011952 68 180 4.0 7.0 0.00 0.00 0.00 41 1014.4
20240225011851 68 199 3.0 7.0 0.00 0.00 0.00 41 1014.4
20240225011751 67 206 2.0 6.0 0.00 0.00 0.00 41 1014.4
20240225011651 68 212 1.0 2.0 0.00 0.00 0.00 41 1014.4
20240225011551 68 220 1.0 2.0 0.00 0.00 0.00 40 1014.3
20240225011451 68 221 1.0 2.0 0.00 0.00 0.00 39 1014.1
20240225011350 68 223 0.0 1.0 0.00 0.00 0.00 40 1014.1
20240225011249 69 223 0.0 0.0 0.00 0.00 0.00 39 1014.1
20240225011150 69 223 0.0 0.0 0.00 0.00 0.00 38 1014.0
20240225011051 69 223 0.0 0.0 0.00 0.00 0.00 38 1014.2
20240225010949 69 223 0.0 0.0 0.00 0.00 0.00 37 1014.2
20240225010849 70 221 0.0 0.0 0.00 0.00 0.00 37 1014.2
20240225010751 69 223 0.0 0.0 0.00 0.00 0.00 37 1014.2
20240225010649 69 223 0.0 0.0 0.00 0.00 0.00 37 1014.2
20240225010552 70 221 0.0 0.0 0.00 0.00 0.00 37 1014.1
20240225010449 70 223 0.0 0.0 0.00 0.00 0.00 37 1014.1
20240225010349 70 221 0.0 0.0 0.00 0.00 0.00 37 1014.1
20240225010250 70 221 0.0 0.0 0.00 0.00 0.00 37 1014.1
20240225010149 70 223 0.0 0.0 0.00 0.00 0.00 37 1014.1
20240225010049 70 223 0.0 0.0 0.00 0.00 0.00 37 1014.0
20240225005949 70 221 0.0 0.0 0.00 0.00 0.00 37 1014.0
20240225005851 70 223 0.0 1.0 0.00 0.00 0.00 37 1013.9
20240225005749 70 221 0.0 1.0 0.00 0.00 0.00 37 1013.9
20240225005651 70 223 0.0 1.0 0.00 0.00 0.00 37 1013.9
20240225005549 71 221 0.0 2.0 0.00 0.00 0.00 36 1014.0
20240225005449 71 223 0.0 2.0 0.00 0.00 0.00 36 1014.1
20240225005350 71 221 0.0 2.0 0.00 0.00 0.00 35 1014.0
20240225005248 71 221 0.0 2.0 0.00 0.00 0.00 35 1014.1
20240225005149 71 223 0.0 2.0 0.00 0.00 0.00 35 1014.1
20240225005050 71 221 0.0 2.0 0.00 0.00 0.00 35 1014.1
20240225004950 71 223 0.0 2.0 0.00 0.00 0.00 35 1014.0
20240225004849 72 221 1.0 2.0 0.00 0.00 0.00 35 1014.1
20240225004749 72 223 1.0 2.0 0.00 0.00 0.00 34 1014.0
20240225004650 72 223 1.0 2.0 0.00 0.00 0.00 34 1014.0
20240225004551 72 223 1.0 2.0 0.00 0.00 0.00 34 1014.1
20240225004450 72 221 1.0 2.0 0.00 0.00 0.00 34 1014.1
20240225004350 72 223 0.0 2.0 0.00 0.00 0.00 34 1014.0
20240225004249 72 221 1.0 2.0 0.00 0.00 0.00 34 1014.0
20240225004149 72 221 1.0 2.0 0.00 0.00 0.00 34 1014.0
20240225004050 72 221 1.0 2.0 0.00 0.00 0.00 33 1014.0
20240225003949 72 221 1.0 1.0 0.00 0.00 0.00 33 1014.0
20240225003849 73 223 0.0 1.0 0.00 0.00 0.00 32 1014.0
20240225003750 73 223 0.0 1.0 0.00 0.00 0.00 32 1014.1
20240225003648 73 221 0.0 1.0 0.00 0.00 0.00 32 1014.0
20240225003548 73 221 0.0 1.0 0.00 0.00 0.00 32 1014.1
20240225003449 73 221 0.0 1.0 0.00 0.00 0.00 32 1014.0
20240225003349 73 223 1.0 1.0 0.00 0.00 0.00 32 1014.1
20240225003249 73 221 1.0 1.0 0.00 0.00 0.00 32 1014.1
20240225003148 73 223 0.0 1.0 0.00 0.00 0.00 32 1014.1
20240225003049 73 221 0.0 1.0 0.00 0.00 0.00 32 1014.1
20240225002948 73 223 0.0 1.0 0.00 0.00 0.00 32 1014.1
20240225002849 73 223 0.0 1.0 0.00 0.00 0.00 32 1014.1
20240225002748 73 223 1.0 1.0 0.00 0.00 0.00 32 1014.0
20240225002648 73 223 1.0 1.0 0.00 0.00 0.00 32 1014.1
20240225002551 73 221 0.0 1.0 0.00 0.00 0.00 32 1014.0
20240225002448 73 221 0.0 1.0 0.00 0.00 0.00 32 1014.0
20240225002349 73 221 0.0 1.0 0.00 0.00 0.00 32 1014.0
20240225002251 73 223 1.0 3.0 0.00 0.00 0.00 32 1014.1
20240225002148 73 223 1.0 3.0 0.00 0.00 0.00 32 1014.2
20240225002050 73 223 1.0 3.0 0.00 0.00 0.00 31 1014.1
20240225001949 74 223 1.0 3.0 0.00 0.00 0.00 31 1014.1
20240225001848 74 221 0.0 3.0 0.00 0.00 0.00 31 1014.2
20240225001748 74 221 0.0 3.0 0.00 0.00 0.00 31 1014.1
20240225001649 74 221 1.0 3.0 0.00 0.00 0.00 31 1014.1
20240225001550 74 221 1.0 3.0 0.00 0.00 0.00 31 1014.2
20240225001448 74 223 1.0 3.0 0.00 0.00 0.00 31 1014.2
20240225001348 74 221 1.0 3.0 0.00 0.00 0.00 31 1014.2
20240225001249 74 221 1.0 2.0 0.00 0.00 0.00 31 1014.2
20240225001149 74 221 1.0 2.0 0.00 0.00 0.00 31 1014.1
20240225001049 74 221 0.0 2.0 0.00 0.00 0.00 31 1014.1
20240225000948 74 221 1.0 2.0 0.00 0.00 0.00 31 1014.1
20240225000849 74 221 1.0 2.0 0.00 0.00 0.00 31 1014.1
20240225000748 74 221 1.0 2.0 0.00 0.00 0.00 31 1014.0
20240225000649 74 221 1.0 2.0 0.00 0.00 0.00 31 1014.1
20240225000549 75 221 0.0 2.0 0.00 0.00 0.00 30 1014.1
20240225000449 75 221 1.0 2.0 0.00 0.00 0.00 30 1014.1
20240225000348 75 221 1.0 2.0 0.00 0.00 0.00 30 1014.1
20240225000248 75 221 0.0 2.0 0.00 0.00 0.00 30 1014.1
20240225000148 75 221 0.0 2.0 0.00 0.00 0.00 30 1014.1
20240225000050 75 221 1.0 2.0 0.00 0.00 0.00 30 1014.1
20240224235949 75 221 1.0 2.0 0.00 0.00 0.00 30 1014.1
20240224235848 75 221 1.0 2.0 0.00 0.00 0.00 30 1014.1
20240224235749 75 221 0.0 2.0 0.00 0.00 0.00 30 1014.2
20240224235647 75 221 0.0 2.0 0.00 0.00 0.00 30 1014.2
20240224235548 75 221 1.0 2.0 0.00 0.00 0.00 30 1014.2
20240224235447 75 221 1.0 2.0 0.00 0.00 0.00 30 1014.1
20240224235347 75 221 1.0 2.0 0.00 0.00 0.00 30 1014.1
20240224235247 75 221 1.0 2.0 0.00 0.00 0.00 30 1014.1
20240224235148 75 221 1.0 2.0 0.00 0.00 0.00 30 1014.1
20240224235048 76 221 1.0 3.0 0.00 0.00 0.00 30 1014.0
20240224234947 76 221 1.0 3.0 0.00 0.00 0.00 30 1014.0
20240224234848 76 221 1.0 3.0 0.00 0.00 0.00 30 1013.9
20240224234747 76 221 1.0 3.0 0.00 0.00 0.00 30 1014.0
20240224234648 76 223 1.0 3.0 0.00 0.00 0.00 30 1014.0
20240224234548 76 223 1.0 5.0 0.00 0.00 0.00 30 1014.0
20240224234447 76 223 1.0 5.0 0.00 0.00 0.00 30 1014.0
20240224234347 76 223 1.0 5.0 0.00 0.00 0.00 30 1014.1
20240224234247 76 224 2.0 5.0 0.00 0.00 0.00 30 1014.0
20240224234147 76 226 2.0 5.0 0.00 0.00 0.00 30 1014.1
20240224234049 76 227 2.0 5.0 0.00 0.00 0.00 29 1014.0
20240224233950 76 227 2.0 5.0 0.00 0.00 0.00 30 1014.0
20240224233848 76 227 2.0 5.0 0.00 0.00 0.00 30 1014.0
20240224233748 76 228 3.0 5.0 0.00 0.00 0.00 32 1014.0
20240224233648 76 288 2.0 5.0 0.00 0.00 0.00 30 1014.0
20240224233547 76 231 1.0 4.0 0.00 0.00 0.00 30 1014.0
20240224233448 76 231 1.0 4.0 0.00 0.00 0.00 29 1013.9
20240224233348 76 231 1.0 4.0 0.00 0.00 0.00 29 1013.9
20240224233247 76 231 1.0 4.0 0.00 0.00 0.00 30 1013.8
20240224233148 76 231 1.0 5.0 0.00 0.00 0.00 30 1013.9
20240224233048 76 231 1.0 5.0 0.00 0.00 0.00 30 1013.9
20240224232947 76 231 1.0 5.0 0.00 0.00 0.00 30 1013.9
20240224232847 76 231 2.0 5.0 0.00 0.00 0.00 31 1014.0
20240224232748 76 231 2.0 5.0 0.00 0.00 0.00 30 1014.0
20240224232649 76 230 2.0 5.0 0.00 0.00 0.00 32 1013.9
20240224232546 76 230 2.0 5.0 0.00 0.00 0.00 30 1014.0
20240224232449 76 228 2.0 5.0 0.00 0.00 0.00 30 1014.0
20240224232348 76 228 2.0 5.0 0.00 0.00 0.00 30 1014.0
20240224232248 76 228 2.0 5.0 0.00 0.00 0.00 30 1014.0
20240224232149 76 227 2.0 4.0 0.00 0.00 0.00 30 1014.0
20240224232047 76 227 2.0 4.0 0.00 0.00 0.00 30 1014.0
20240224231949 76 227 2.0 4.0 0.00 0.00 0.00 30 1014.0
20240224231848 76 227 3.0 4.0 0.00 0.00 0.00 30 1014.0
20240224231747 76 226 3.0 4.0 0.00 0.00 0.00 29 1014.0
20240224231647 76 224 2.0 4.0 0.00 0.00 0.00 29 1013.9
20240224231546 77 224 2.0 4.0 0.00 0.00 0.00 30 1013.9
20240224231448 77 224 3.0 5.0 0.00 0.00 0.00 29 1013.9
20240224231346 77 216 3.0 5.0 0.00 0.00 0.00 29 1013.8
20240224231248 77 209 3.0 5.0 0.00 0.00 0.00 29 1013.9
20240224231147 77 206 3.0 5.0 0.00 0.00 0.00 29 1013.8
20240224231046 77 238 3.0 5.0 0.00 0.00 0.00 28 1014.0
20240224230948 77 137 1.0 5.0 0.00 0.00 0.00 29 1014.1
20240224230847 76 102 1.0 5.0 0.00 0.00 0.00 30 1014.1
20240224230747 76 99 1.0 5.0 0.00 0.00 0.00 30 1014.0
20240224230648 76 99 3.0 5.0 0.00 0.00 0.00 28 1014.1
20240224230547 77 99 3.0 5.0 0.00 0.00 0.00 28 1014.1
20240224230446 77 110 2.0 5.0 0.00 0.00 0.00 28 1014.1
20240224230348 77 166 3.0 5.0 0.00 0.00 0.00 29 1014.1
20240224230248 77 110 3.0 5.0 0.00 0.00 0.00 28 1014.1
20240224230147 77 127 2.0 4.0 0.00 0.00 0.00 29 1014.2
20240224230046 77 131 2.0 4.0 0.00 0.00 0.00 27 1014.0
20240224225949 77 189 0.0 4.0 0.00 0.00 0.00 27 1014.1
20240224225848 77 189 1.0 4.0 0.00 0.00 0.00 27 1014.1
20240224225746 77 189 2.0 4.0 0.00 0.00 0.00 27 1014.0
20240224225647 77 192 2.0 4.0 0.00 0.00 0.00 27 1014.0
20240224225546 77 192 2.0 4.0 0.00 0.00 0.00 28 1014.0
20240224225448 77 192 2.0 4.0 0.00 0.00 0.00 27 1014.0
20240224225349 77 214 2.0 4.0 0.00 0.00 0.00 28 1014.0
20240224225246 77 221 2.0 3.0 0.00 0.00 0.00 28 1014.1
20240224225147 77 237 2.0 4.0 0.00 0.00 0.00 30 1014.1
20240224225048 78 237 2.0 4.0 0.00 0.00 0.00 29 1014.1
20240224224947 77 237 2.0 4.0 0.00 0.00 0.00 29 1014.1